ANA207 RJTT-LIMC

Flight info

Callsign ANA207
Flight time 14h 2m
Altitude 35000
Route RJTT/34R OPPAR4 OPPAR DCT UTIBO Y803 POROT Y57 PUTER A590 POWAL DCT HEDMI R338 MARCC DCT JUJXI DCT 71N160W DCT AGMIF DCT 79N120W 80N100W 80N080W DCT BUDUM DCT 80N060W 78N040W 76N030W 73N020W 68N010W DCT RIXUN DCT MOCHA DCT FORTY DCT ODMIX DCT CUTEL DCT TIMUP L7 VENAS L74 TOPPA DCT AMGOD DCT PETIK DCT SOGPO DCT DODEN DCT TABUM DCT GIGET DCT ABUKA DCT KRH DCT NATOR DCT TRA DCT RIPUS DCT GERSA DCT SOSON DCT DEGAD Z424 RIXUV RIXU3E LIMC/35L
Aircraft B789/H-VRDW/C

Departure

Time 2026-02-16 16:52
Airport Tokyo Haneda International Airport (RJTT)

Arrival

Time 2026-02-17 06:54
Airport Milan Malpensa International Airport (LIMC)
Time Latitude Longitude Altitude Speed Heading
2026-02-16 16:27 35.54866 139.79382 33 ft 0 kts 330°
2026-02-16 16:37 35.54865 139.79383 33 ft 1 kts 330°
2026-02-16 16:37 35.54849 139.79394 30 ft 3 kts 330°
2026-02-16 16:38 35.54832 139.79406 31 ft 2 kts 330°
2026-02-16 16:38 35.54815 139.79417 31 ft 3 kts 346°
2026-02-16 16:38 35.54797 139.79418 32 ft 3 kts 25°
2026-02-16 16:38 35.54783 139.79404 32 ft 3 kts 56°
2026-02-16 16:39 35.54774 139.79386 31 ft 1 kts 60°
2026-02-16 16:39 35.54767 139.79372 32 ft 2 kts 60°
2026-02-16 16:39 35.54757 139.79351 32 ft 3 kts 60°
2026-02-16 16:39 35.54746 139.79329 32 ft 3 kts 60°
2026-02-16 16:40 35.54737 139.79308 32 ft 2 kts 60°
2026-02-16 16:40 35.54734 139.79302 32 ft 8 kts 60°
2026-02-16 16:45 35.54747 139.79340 32 ft 5 kts 76°
2026-02-16 16:45 35.54745 139.79403 32 ft 10 kts 98°
2026-02-16 16:46 35.54742 139.79490 32 ft 10 kts 75°
2026-02-16 16:46 35.54773 139.79568 31 ft 11 kts 59°
2026-02-16 16:46 35.54797 139.79648 30 ft 7 kts 103°
2026-02-16 16:46 35.54768 139.79691 28 ft 8 kts 142°
2026-02-16 16:47 35.54711 139.79733 29 ft 11 kts 150°
2026-02-16 16:47 35.54637 139.79785 30 ft 15 kts 150°
2026-02-16 16:47 35.54530 139.79862 28 ft 21 kts 150°
2026-02-16 16:47 35.54385 139.79966 27 ft 25 kts 150°
2026-02-16 16:48 35.54086 139.80178 26 ft 24 kts 150°
2026-02-16 16:48 35.53965 139.80263 29 ft 14 kts 150°
2026-02-16 16:48 35.53917 139.80313 31 ft 6 kts 110°
2026-02-16 16:49 35.53916 139.80343 32 ft 3 kts 86°
2026-02-16 16:49 35.53931 139.80396 35 ft 5 kts 61°
2026-02-16 16:49 35.53955 139.80447 35 ft 8 kts 59°
2026-02-16 16:50 35.53992 139.80488 39 ft 6 kts 13°
2026-02-16 16:50 35.54031 139.80471 38 ft 6 kts 329°
2026-02-16 16:50 35.54036 139.80467 37 ft 0 kts 329°
2026-02-16 16:51 35.54038 139.80466 37 ft 1 kts 329°
2026-02-16 16:51 35.54066 139.80446 37 ft 15 kts 330°
2026-02-16 16:51 35.54305 139.80277 33 ft 68 kts 330°
2026-02-16 16:51 35.54874 139.79872 34 ft 120 kts 329°
2026-02-16 16:52 35.55731 139.79262 33 ft 163 kts 330°
2026-02-16 16:52 35.56774 139.78539 411 ft 167 kts 329°
2026-02-16 16:52 35.57809 139.77848 990 ft 178 kts 340°
2026-02-16 16:52 35.59005 139.78008 1625 ft 176 kts 32°
2026-02-16 16:53 35.59801 139.79154 2061 ft 191 kts 68°
2026-02-16 16:53 35.59495 139.82608 2789 ft 227 kts 103°
2026-02-16 16:53 35.59098 139.84575 3188 ft 244 kts 101°
2026-02-16 16:54 35.58731 139.86670 3646 ft 260 kts 100°
2026-02-16 16:54 35.58360 139.88882 4426 ft 263 kts 101°
2026-02-16 16:54 35.57976 139.91105 5242 ft 270 kts 102°
2026-02-16 16:54 35.57225 139.93219 5917 ft 272 kts 136°
2026-02-16 16:55 35.55654 139.94468 6697 ft 273 kts 167°
2026-02-16 16:55 35.53801 139.94436 7452 ft 267 kts 204°
2026-02-16 16:55 35.52176 139.93352 8171 ft 269 kts 211°
2026-02-16 16:55 35.50543 139.92244 8983 ft 268 kts 216°
2026-02-16 16:56 35.48990 139.90985 9829 ft 267 kts 220°
2026-02-16 16:56 35.47530 139.89537 10338 ft 279 kts 226°
2026-02-16 16:56 35.46117 139.87765 10426 ft 304 kts 232°
2026-02-16 16:56 35.44808 139.85601 10509 ft 328 kts 240°
2026-02-16 16:57 35.43751 139.83090 10885 ft 339 kts 249°
2026-02-16 16:57 35.42666 139.77497 12482 ft 340 kts 262°
2026-02-16 16:57 35.41945 139.74739 13205 ft 344 kts 241°
2026-02-16 16:58 35.40393 139.72490 13953 ft 353 kts 222°
2026-02-16 16:58 35.38213 139.71018 14592 ft 366 kts 203°
2026-02-16 16:58 35.35617 139.70522 15193 ft 383 kts 184°
2026-02-16 16:58 35.32950 139.71096 15770 ft 401 kts 166°
2026-02-16 16:59 35.30443 139.72643 16300 ft 416 kts 153°
2026-02-16 16:59 35.28035 139.74678 16840 ft 423 kts 150°
2026-02-16 16:59 35.25611 139.76743 17388 ft 425 kts 153°
2026-02-16 16:59 35.23084 139.78640 17928 ft 426 kts 158°
2026-02-16 17:00 35.20413 139.80150 18450 ft 421 kts 168°
2026-02-16 17:00 35.17599 139.81155 18922 ft 419 kts 173°
2026-02-16 17:00 35.14751 139.81972 19428 ft 421 kts 174°
2026-02-16 17:00 35.11909 139.82899 19904 ft 427 kts 169°
2026-02-16 17:01 35.03662 139.87546 21262 ft 454 kts 146°
2026-02-16 17:01 35.01378 139.90276 21696 ft 465 kts 134°
2026-02-16 17:02 34.99551 139.93584 22122 ft 475 kts 121°
2026-02-16 17:02 34.98310 139.97296 22543 ft 484 kts 108°
2026-02-16 17:02 34.97825 140.05514 23339 ft 493 kts 80°
2026-02-16 17:03 34.98542 140.09619 23651 ft 496 kts 76°
2026-02-16 17:03 34.99330 140.13729 24009 ft 498 kts 76°
2026-02-16 17:03 35.00142 140.17845 24331 ft 500 kts 75°
2026-02-16 17:03 35.00948 140.21985 24638 ft 503 kts 76°
2026-02-16 17:04 35.01741 140.26154 24948 ft 506 kts 76°
2026-02-16 17:04 35.02540 140.30338 25242 ft 508 kts 76°
2026-02-16 17:04 35.03351 140.34550 25523 ft 510 kts 76°
2026-02-16 17:04 35.04163 140.38772 25855 ft 512 kts 76°
2026-02-16 17:05 35.04971 140.43011 26135 ft 514 kts 76°
2026-02-16 17:05 35.06596 140.51554 26697 ft 519 kts 75°
2026-02-16 17:05 35.07424 140.55861 26983 ft 521 kts 73°
2026-02-16 17:06 35.08631 140.60009 27238 ft 520 kts 65°
2026-02-16 17:06 35.10014 140.64107 27500 ft 522 kts 65°
2026-02-16 17:06 35.11405 140.68212 27757 ft 525 kts 65°
2026-02-16 17:06 35.12784 140.72347 28031 ft 527 kts 65°
2026-02-16 17:07 35.14143 140.76455 28300 ft 529 kts 65°
2026-02-16 17:07 35.15533 140.80630 28555 ft 531 kts 65°
2026-02-16 17:07 35.16932 140.84813 28801 ft 534 kts 65°
2026-02-16 17:07 35.18333 140.89028 29061 ft 536 kts 65°
2026-02-16 17:08 35.19731 140.93254 29319 ft 538 kts 65°
2026-02-16 17:08 35.21138 140.97505 29588 ft 540 kts 65°
2026-02-16 17:08 35.22553 141.01776 29806 ft 542 kts 65°
2026-02-16 17:08 35.23973 141.06071 30059 ft 544 kts 65°
2026-02-16 17:09 35.25390 141.10370 30285 ft 546 kts 65°
2026-02-16 17:09 35.28236 141.19017 30685 ft 550 kts 64°
2026-02-16 17:09 35.29668 141.23375 30912 ft 551 kts 64°
2026-02-16 17:10 35.31077 141.27673 31204 ft 551 kts 64°
2026-02-16 17:10 35.32501 141.32024 31508 ft 550 kts 64°
2026-02-16 17:10 35.33922 141.36368 31773 ft 550 kts 64°
2026-02-16 17:10 35.35344 141.40719 32051 ft 550 kts 64°
2026-02-16 17:11 35.36765 141.45080 32344 ft 550 kts 64°
2026-02-16 17:11 35.38181 141.49429 32640 ft 550 kts 64°
2026-02-16 17:11 35.39602 141.53799 32908 ft 550 kts 64°
2026-02-16 17:11 35.41017 141.58157 33179 ft 550 kts 64°
2026-02-16 17:12 35.42428 141.62509 33450 ft 549 kts 64°
2026-02-16 17:12 35.43838 141.66867 33741 ft 549 kts 64°
2026-02-16 17:12 35.45248 141.71226 34010 ft 550 kts 64°
2026-02-16 17:12 35.46655 141.75585 34237 ft 550 kts 64°
2026-02-16 17:13 35.48044 141.79896 34414 ft 551 kts 64°
2026-02-16 17:13 35.50880 141.88711 34764 ft 553 kts 64°
2026-02-16 17:13 35.52271 141.93048 34932 ft 554 kts 64°
2026-02-16 17:14 35.53682 141.97452 35107 ft 555 kts 64°
2026-02-16 17:14 35.56521 142.06332 35094 ft 558 kts 64°
2026-02-16 17:15 35.59337 142.15171 35091 ft 555 kts 64°
2026-02-16 17:15 35.62150 142.24015 35099 ft 555 kts 64°
2026-02-16 17:16 35.64953 142.32868 35097 ft 555 kts 64°
2026-02-16 17:16 35.67747 142.41712 35105 ft 555 kts 64°
2026-02-16 17:17 35.70525 142.50533 35111 ft 556 kts 64°
2026-02-16 17:17 35.74705 142.63855 35105 ft 557 kts 64°
2026-02-16 17:18 35.77486 142.72756 35108 ft 557 kts 64°
2026-02-16 17:18 35.80262 142.81663 35110 ft 557 kts 64°
2026-02-16 17:19 35.83035 142.90589 35106 ft 557 kts 64°
2026-02-16 17:19 35.85801 142.99520 35107 ft 558 kts 64°
2026-02-16 17:20 35.88563 143.08469 35101 ft 558 kts 64°
2026-02-16 17:20 35.91392 143.17375 35117 ft 553 kts 56°
2026-02-16 17:21 35.93340 143.21415 35122 ft 543 kts 45°
2026-02-16 17:21 35.98496 143.27861 35132 ft 521 kts 27°
2026-02-16 17:22 36.04335 143.33234 35121 ft 523 kts 27°
2026-02-16 17:22 36.10175 143.38584 35118 ft 522 kts 27°
2026-02-16 17:23 36.16007 143.43959 35120 ft 523 kts 27°
2026-02-16 17:23 36.21842 143.49336 35122 ft 523 kts 27°
2026-02-16 17:24 36.27683 143.54734 35122 ft 524 kts 27°
2026-02-16 17:24 36.33526 143.60142 35122 ft 525 kts 27°
2026-02-16 17:25 36.39381 143.65573 35125 ft 525 kts 27°
2026-02-16 17:25 36.48127 143.73704 35127 ft 525 kts 27°
2026-02-16 17:26 36.51066 143.76445 35252 ft 530 kts 25°
2026-02-16 17:26 36.54043 143.79208 35138 ft 539 kts 25°
2026-02-16 17:26 36.60070 143.84847 35124 ft 545 kts 26°
2026-02-16 17:27 36.66149 143.90533 35123 ft 547 kts 26°
2026-02-16 17:27 36.72240 143.96244 35126 ft 548 kts 26°
2026-02-16 17:28 36.78341 144.01977 35128 ft 548 kts 26°
2026-02-16 17:28 36.84398 144.07678 35129 ft 548 kts 26°
2026-02-16 17:29 36.93539 144.16305 35127 ft 549 kts 26°
2026-02-16 17:30 36.99633 144.22072 35129 ft 550 kts 27°
2026-02-16 17:30 37.05727 144.27852 35135 ft 550 kts 27°
2026-02-16 17:31 37.10785 144.32671 35134 ft 549 kts 27°
2026-02-16 17:31 37.16864 144.38469 35132 ft 549 kts 27°
2026-02-16 17:32 37.22943 144.44279 35128 ft 549 kts 27°
2026-02-16 17:32 37.29011 144.50093 35134 ft 549 kts 27°
2026-02-16 17:33 37.35076 144.55912 35133 ft 549 kts 28°
2026-02-16 17:33 37.44183 144.64677 35131 ft 549 kts 28°
2026-02-16 17:34 37.50246 144.70526 35131 ft 548 kts 28°
2026-02-16 17:34 37.56300 144.76380 35133 ft 548 kts 28°
2026-02-16 17:35 37.62362 144.82254 35133 ft 549 kts 28°
2026-02-16 17:35 37.68428 144.88143 35132 ft 550 kts 28°
2026-02-16 17:36 37.74447 144.94002 35128 ft 549 kts 28°
2026-02-16 17:36 37.80503 144.99905 35133 ft 549 kts 29°
2026-02-16 17:37 37.89583 145.08783 35130 ft 550 kts 29°
2026-02-16 17:38 37.95639 145.14719 35128 ft 551 kts 29°
2026-02-16 17:38 38.01702 145.20676 35128 ft 552 kts 29°
2026-02-16 17:39 38.07765 145.26645 35132 ft 551 kts 29°
2026-02-16 17:39 38.13782 145.32581 35128 ft 551 kts 30°
2026-02-16 17:40 38.19836 145.38567 35129 ft 552 kts 30°
2026-02-16 17:40 38.25903 145.44579 35128 ft 552 kts 30°
2026-02-16 17:41 38.31959 145.50593 35126 ft 552 kts 30°
2026-02-16 17:41 38.40595 145.60524 35124 ft 559 kts 36°
2026-02-16 17:42 38.46311 145.67257 35119 ft 560 kts 36°
2026-02-16 17:42 38.52025 145.74016 35126 ft 560 kts 36°
2026-02-16 17:43 38.57741 145.80786 35123 ft 560 kts 36°
2026-02-16 17:43 38.63447 145.87563 35125 ft 560 kts 36°
2026-02-16 17:44 38.69110 145.94302 35121 ft 559 kts 36°
2026-02-16 17:44 38.74804 146.01095 35121 ft 559 kts 36°
2026-02-16 17:45 38.83331 146.11296 35110 ft 558 kts 36°
2026-02-16 17:46 38.89000 146.18096 35113 ft 558 kts 37°
2026-02-16 17:46 38.94662 146.24904 35119 ft 558 kts 37°
2026-02-16 17:47 39.00339 146.31746 35116 ft 559 kts 37°
2026-02-16 17:47 39.05979 146.38560 35115 ft 559 kts 37°
2026-02-16 17:48 39.11647 146.45422 35114 ft 559 kts 37°
2026-02-16 17:48 39.17308 146.52293 35115 ft 559 kts 37°
2026-02-16 17:49 39.22973 146.59183 35115 ft 560 kts 37°
2026-02-16 17:49 39.31470 146.69550 35109 ft 561 kts 37°
2026-02-16 17:50 39.37140 146.76487 35110 ft 561 kts 38°
2026-02-16 17:50 39.42812 146.83444 35111 ft 562 kts 38°
2026-02-16 17:51 39.48478 146.90410 35109 ft 562 kts 38°
2026-02-16 17:51 39.54143 146.97391 35112 ft 562 kts 38°
2026-02-16 17:52 39.59800 147.04378 35108 ft 562 kts 38°
2026-02-16 17:52 39.65461 147.11387 35102 ft 562 kts 38°
2026-02-16 17:53 39.73901 147.21867 35104 ft 562 kts 38°
2026-02-16 17:54 39.79553 147.28908 35104 ft 562 kts 38°
2026-02-16 17:54 39.85189 147.35943 35105 ft 562 kts 39°
2026-02-16 17:55 39.90820 147.42992 35095 ft 561 kts 39°
2026-02-16 17:55 39.96440 147.50041 35097 ft 561 kts 39°
2026-02-16 17:56 40.02055 147.57102 35101 ft 560 kts 39°
2026-02-16 17:56 40.07631 147.64131 35103 ft 560 kts 39°
2026-02-16 17:57 40.13265 147.71250 35100 ft 560 kts 39°
2026-02-16 17:57 40.21635 147.81858 35103 ft 561 kts 39°
2026-02-16 17:58 40.27234 147.88976 35101 ft 561 kts 39°
2026-02-16 17:58 40.32828 147.96105 35108 ft 561 kts 40°
2026-02-16 17:59 40.38422 148.03251 35107 ft 561 kts 40°
2026-02-16 17:59 40.44008 148.10405 35107 ft 561 kts 40°
2026-02-16 18:00 40.49589 148.17569 35102 ft 561 kts 40°
2026-02-16 18:00 40.55167 148.24748 35114 ft 561 kts 40°
2026-02-16 18:01 40.63535 148.35550 35110 ft 561 kts 40°
2026-02-16 18:02 40.71885 148.46368 35103 ft 561 kts 40°
2026-02-16 18:02 40.77410 148.53549 35097 ft 561 kts 40°
2026-02-16 18:03 40.82959 148.60779 35100 ft 561 kts 40°
2026-02-16 18:03 40.88510 148.68030 35097 ft 560 kts 41°
2026-02-16 18:04 40.94052 148.75286 35100 ft 561 kts 41°
2026-02-16 18:04 40.99601 148.82570 35102 ft 562 kts 41°
2026-02-16 18:05 41.07921 148.93527 35096 ft 562 kts 41°
2026-02-16 18:06 41.13432 149.00813 35099 ft 562 kts 41°
2026-02-16 18:06 41.18957 149.08136 35094 ft 562 kts 41°
2026-02-16 18:07 41.24491 149.15488 35093 ft 562 kts 41°
2026-02-16 18:07 41.30007 149.22837 35090 ft 561 kts 41°
2026-02-16 18:08 41.35518 149.30196 35092 ft 561 kts 41°
2026-02-16 18:08 41.41021 149.37565 35086 ft 561 kts 41°
2026-02-16 18:09 41.46499 149.44917 35086 ft 561 kts 42°
2026-02-16 18:09 41.54771 149.56057 35083 ft 561 kts 42°
2026-02-16 18:10 41.60232 149.63436 35083 ft 562 kts 42°
2026-02-16 18:10 41.65725 149.70875 35082 ft 561 kts 42°
2026-02-16 18:11 41.71212 149.78326 35076 ft 562 kts 42°
2026-02-16 18:11 41.76691 149.85786 35075 ft 562 kts 42°
2026-02-16 18:12 41.82172 149.93266 35073 ft 562 kts 42°
2026-02-16 18:12 41.87647 150.00759 35073 ft 562 kts 42°
2026-02-16 18:13 41.95859 150.12035 35064 ft 563 kts 43°
2026-02-16 18:14 42.01299 150.19528 35062 ft 563 kts 43°
2026-02-16 18:14 42.06766 150.27078 35061 ft 563 kts 43°
2026-02-16 18:15 42.12219 150.34630 35061 ft 562 kts 43°
2026-02-16 18:15 42.17665 150.42190 35057 ft 563 kts 43°
2026-02-16 18:16 42.23117 150.49780 35055 ft 562 kts 43°
2026-02-16 18:16 42.28557 150.57373 35042 ft 562 kts 43°
2026-02-16 18:17 42.33953 150.64924 35046 ft 562 kts 43°
2026-02-16 18:17 42.42094 150.76354 35045 ft 562 kts 43°
2026-02-16 18:18 42.47515 150.83991 35044 ft 563 kts 43°
2026-02-16 18:18 42.52060 150.90410 35038 ft 562 kts 43°
2026-02-16 18:19 42.57438 150.98023 35041 ft 563 kts 43°
2026-02-16 18:19 42.62849 151.05704 35030 ft 562 kts 44°
2026-02-16 18:20 42.68284 151.13439 35034 ft 562 kts 44°
2026-02-16 18:20 42.73645 151.21090 35027 ft 563 kts 44°
2026-02-16 18:21 42.81733 151.32671 35015 ft 563 kts 44°
2026-02-16 18:22 42.87119 151.40410 35013 ft 563 kts 44°
2026-02-16 18:22 42.92509 151.48176 35012 ft 563 kts 44°
2026-02-16 18:23 42.97890 151.55949 35009 ft 563 kts 44°
2026-02-16 18:23 43.03264 151.63734 35007 ft 563 kts 44°
2026-02-16 18:24 43.08634 151.71533 34997 ft 563 kts 44°
2026-02-16 18:24 43.13996 151.79343 34998 ft 563 kts 44°
2026-02-16 18:25 43.19359 151.87176 34987 ft 563 kts 44°
2026-02-16 18:25 43.27351 151.98889 34982 ft 563 kts 44°
2026-02-16 18:26 43.32693 152.06745 34984 ft 563 kts 45°
2026-02-16 18:26 43.38039 152.14629 34977 ft 562 kts 45°
2026-02-16 18:27 43.43371 152.22513 34975 ft 563 kts 45°
2026-02-16 18:27 43.48702 152.30418 34965 ft 563 kts 45°
2026-02-16 18:28 43.54024 152.38332 34965 ft 563 kts 45°
2026-02-16 18:28 43.59299 152.46199 34962 ft 562 kts 45°
2026-02-16 18:29 43.67265 152.58119 34951 ft 563 kts 45°
2026-02-16 18:30 43.72579 152.66098 34950 ft 563 kts 45°
2026-02-16 18:30 43.77880 152.74081 34948 ft 563 kts 45°
2026-02-16 18:31 43.83171 152.82072 34939 ft 563 kts 45°
2026-02-16 18:31 43.88462 152.90084 34934 ft 563 kts 45°
2026-02-16 18:32 43.93747 152.98111 34928 ft 563 kts 45°
2026-02-16 18:32 43.98994 153.06101 34917 ft 563 kts 45°
2026-02-16 18:33 44.04265 153.14153 34911 ft 563 kts 45°
2026-02-16 18:33 44.12167 153.26265 34908 ft 564 kts 46°
2026-02-16 18:34 44.17431 153.34363 34901 ft 564 kts 46°
2026-02-16 18:34 44.22682 153.42464 34890 ft 563 kts 46°
2026-02-16 18:35 44.27928 153.50580 34887 ft 563 kts 46°
2026-02-16 18:35 44.33177 153.58725 34885 ft 563 kts 46°
2026-02-16 18:36 44.38415 153.66876 34872 ft 564 kts 46°
2026-02-16 18:36 44.43647 153.75043 34863 ft 564 kts 46°
2026-02-16 18:37 44.51452 153.87266 34855 ft 564 kts 46°
2026-02-16 18:38 44.56678 153.95482 34849 ft 564 kts 46°
2026-02-16 18:38 44.61889 154.03698 34845 ft 564 kts 46°
2026-02-16 18:39 44.67103 154.11942 34836 ft 564 kts 46°
2026-02-16 18:39 44.72306 154.20195 34824 ft 564 kts 46°
2026-02-16 18:40 44.77503 154.28462 34819 ft 563 kts 46°
2026-02-16 18:40 44.82696 154.36746 34809 ft 563 kts 46°
2026-02-16 18:41 44.87838 154.44996 34809 ft 563 kts 47°
2026-02-16 18:41 44.95459 154.57614 34789 ft 563 kts 47°
2026-02-16 18:42 45.00564 154.66006 34782 ft 563 kts 48°
2026-02-16 18:42 45.05638 154.74440 34776 ft 563 kts 47°
2026-02-16 18:43 45.10723 154.82867 34770 ft 563 kts 48°
2026-02-16 18:43 45.15791 154.91325 34760 ft 563 kts 48°
2026-02-16 18:44 45.20829 154.99737 34748 ft 562 kts 48°
2026-02-16 18:44 45.25884 155.08217 34739 ft 563 kts 48°
2026-02-16 18:45 45.33464 155.20969 34727 ft 563 kts 48°
2026-02-16 18:46 45.38513 155.29500 34714 ft 563 kts 48°
2026-02-16 18:46 45.43524 155.37988 34708 ft 563 kts 48°
2026-02-16 18:47 45.48551 155.46532 34690 ft 562 kts 48°
2026-02-16 18:47 45.53571 155.55089 34680 ft 562 kts 49°
2026-02-16 18:48 45.58582 155.63657 34688 ft 562 kts 49°
2026-02-16 18:48 45.63593 155.72252 34682 ft 563 kts 49°
2026-02-16 18:49 45.68594 155.80856 34662 ft 563 kts 49°
2026-02-16 18:49 45.76096 155.93813 34659 ft 563 kts 49°
2026-02-16 18:50 45.81080 156.02452 34639 ft 563 kts 49°
2026-02-16 18:51 45.96028 156.28530 34633 ft 564 kts 49°
2026-02-16 18:52 46.00996 156.37252 34619 ft 564 kts 49°
2026-02-16 18:52 46.05930 156.45940 34620 ft 564 kts 49°
2026-02-16 18:53 46.10885 156.54694 34605 ft 564 kts 50°
2026-02-16 18:53 46.15835 156.63465 34605 ft 564 kts 50°
2026-02-16 18:54 46.20783 156.72260 34598 ft 564 kts 50°
2026-02-16 18:54 46.25726 156.81076 34598 ft 564 kts 50°
2026-02-16 18:55 46.33124 156.94321 34585 ft 565 kts 50°
2026-02-16 18:56 46.38058 157.03189 34576 ft 565 kts 50°
2026-02-16 18:56 46.45446 157.16524 34574 ft 565 kts 50°
2026-02-16 18:57 46.50325 157.25364 34568 ft 565 kts 50°
2026-02-16 18:57 46.55234 157.34287 34565 ft 565 kts 50°
2026-02-16 18:58 46.60143 157.43240 34565 ft 566 kts 50°
2026-02-16 18:58 46.65047 157.52212 34556 ft 565 kts 51°
2026-02-16 18:59 46.72352 157.65632 34546 ft 566 kts 51°
2026-02-16 19:00 46.77228 157.74626 34546 ft 565 kts 51°
2026-02-16 19:00 46.82096 157.83634 34539 ft 565 kts 51°
2026-02-16 19:01 46.86972 157.92687 34532 ft 566 kts 51°
2026-02-16 19:01 46.91838 158.01749 34526 ft 567 kts 51°
2026-02-16 19:02 46.96699 158.10834 34520 ft 568 kts 51°
2026-02-16 19:02 47.01553 158.19936 34519 ft 567 kts 51°
2026-02-16 19:03 47.06366 158.28990 34513 ft 567 kts 51°
2026-02-16 19:03 47.13638 158.42727 34511 ft 566 kts 51°
2026-02-16 19:04 47.17650 158.50335 34505 ft 566 kts 52°
2026-02-16 19:04 47.23283 158.61051 34497 ft 567 kts 52°
2026-02-16 19:05 47.27283 158.68687 34495 ft 568 kts 52°
2026-02-16 19:05 47.32102 158.77916 34487 ft 567 kts 52°
2026-02-16 19:06 47.36896 158.87126 34487 ft 566 kts 52°
2026-02-16 19:06 47.41687 158.96362 34477 ft 567 kts 52°
2026-02-16 19:07 47.48840 159.10210 34475 ft 567 kts 52°
2026-02-16 19:08 47.53612 159.19487 34472 ft 567 kts 52°
2026-02-16 19:08 47.58385 159.28798 34472 ft 567 kts 52°
2026-02-16 19:09 47.63147 159.38119 34473 ft 567 kts 53°
2026-02-16 19:09 47.67900 159.47453 34466 ft 567 kts 53°
2026-02-16 19:10 47.72646 159.56807 34466 ft 567 kts 53°
2026-02-16 19:10 47.77382 159.66171 34469 ft 567 kts 53°
2026-02-16 19:11 47.82082 159.75498 34462 ft 566 kts 53°
2026-02-16 19:11 47.89150 159.89583 34461 ft 566 kts 53°
2026-02-16 19:12 47.93861 159.99012 34461 ft 566 kts 53°
2026-02-16 19:12 47.98561 160.08452 34459 ft 566 kts 53°
2026-02-16 19:13 48.03247 160.17896 34457 ft 566 kts 53°
2026-02-16 19:13 48.07897 160.27298 34460 ft 565 kts 54°
2026-02-16 19:14 48.12559 160.36761 34459 ft 565 kts 54°
2026-02-16 19:14 48.17224 160.46260 34463 ft 565 kts 54°
2026-02-16 19:15 48.24196 160.60521 34456 ft 565 kts 54°
2026-02-16 19:16 48.28798 160.70105 34465 ft 564 kts 57°
2026-02-16 19:16 48.33299 160.79799 34475 ft 567 kts 55°
2026-02-16 19:17 48.37784 160.89552 34472 ft 567 kts 57°
2026-02-16 19:17 48.42257 160.99320 34472 ft 567 kts 56°
2026-02-16 19:18 48.46740 161.09108 34474 ft 567 kts 56°
2026-02-16 19:18 48.51191 161.18907 34475 ft 567 kts 56°
2026-02-16 19:19 48.55627 161.28666 34477 ft 567 kts 57°
2026-02-16 19:19 48.62304 161.43459 34478 ft 569 kts 57°
2026-02-16 19:20 48.66756 161.53366 34480 ft 570 kts 57°
2026-02-16 19:20 48.71209 161.63307 34481 ft 570 kts 57°
2026-02-16 19:21 48.75649 161.73257 34485 ft 571 kts 57°
2026-02-16 19:22 48.82296 161.88223 34484 ft 570 kts 57°
2026-02-16 19:22 48.86716 161.98219 34483 ft 570 kts 57°
2026-02-16 19:23 48.91104 162.08183 34487 ft 570 kts 57°
2026-02-16 19:23 48.97704 162.23236 34484 ft 570 kts 58°
2026-02-16 19:24 49.02089 162.33286 34486 ft 570 kts 58°
2026-02-16 19:24 49.06476 162.43376 34488 ft 570 kts 58°
2026-02-16 19:25 49.10856 162.53490 34487 ft 571 kts 58°
2026-02-16 19:25 49.15227 162.63620 34486 ft 571 kts 58°
2026-02-16 19:26 49.19590 162.73773 34489 ft 572 kts 58°
2026-02-16 19:26 49.23950 162.83954 34490 ft 572 kts 58°
2026-02-16 19:27 49.30439 162.99181 34490 ft 571 kts 58°
2026-02-16 19:28 49.34770 163.09392 34498 ft 571 kts 59°
2026-02-16 19:28 49.39097 163.19634 34494 ft 571 kts 59°
2026-02-16 19:29 49.43409 163.29880 34496 ft 571 kts 59°
2026-02-16 19:29 49.47710 163.40139 34494 ft 571 kts 59°
2026-02-16 19:30 49.52006 163.50425 34504 ft 571 kts 59°
2026-02-16 19:30 49.56299 163.60744 34499 ft 571 kts 59°
2026-02-16 19:31 49.60577 163.71069 34500 ft 571 kts 59°
2026-02-16 19:31 49.66945 163.86512 34503 ft 570 kts 59°
2026-02-16 19:32 49.71197 163.96872 34518 ft 570 kts 60°
2026-02-16 19:32 49.75438 164.07248 34511 ft 571 kts 60°
2026-02-16 19:33 49.79674 164.17650 34503 ft 571 kts 60°
2026-02-16 19:33 49.83897 164.28064 34506 ft 571 kts 60°
2026-02-16 19:34 49.88110 164.38493 34502 ft 571 kts 60°
2026-02-16 19:34 49.92309 164.48931 34503 ft 570 kts 60°
2026-02-16 19:35 49.98576 164.64585 34505 ft 571 kts 60°
2026-02-16 19:36 50.02757 164.75079 34503 ft 571 kts 60°
2026-02-16 19:36 50.06929 164.85594 34506 ft 571 kts 60°
2026-02-16 19:37 50.11096 164.96141 34506 ft 571 kts 61°
2026-02-16 19:37 50.15252 165.06699 34508 ft 572 kts 61°
2026-02-16 19:37 50.17530 165.11786 34538 ft 573 kts 49°
2026-02-16 19:38 50.20339 165.16207 34547 ft 574 kts 40°
2026-02-16 19:38 50.26392 165.24388 34522 ft 575 kts 40°
2026-02-16 19:39 50.32449 165.32579 34518 ft 575 kts 40°
2026-02-16 19:39 50.41465 165.44856 34515 ft 575 kts 40°
2026-02-16 19:40 50.47486 165.53094 34510 ft 575 kts 41°
2026-02-16 19:40 50.53517 165.61365 34508 ft 575 kts 41°
2026-02-16 19:41 50.59526 165.69638 34503 ft 574 kts 41°
2026-02-16 19:41 50.65532 165.77938 34498 ft 574 kts 41°
2026-02-16 19:42 50.71535 165.86260 34500 ft 574 kts 41°
2026-02-16 19:42 50.77535 165.94610 34495 ft 574 kts 41°
2026-02-16 19:43 50.86464 166.07090 34493 ft 573 kts 41°
2026-02-16 19:44 50.92435 166.15473 34487 ft 574 kts 41°
2026-02-16 19:44 50.98401 166.23878 34482 ft 573 kts 41°
2026-02-16 19:45 51.04355 166.32298 34478 ft 573 kts 41°
2026-02-16 19:45 51.10311 166.40748 34476 ft 573 kts 42°
2026-02-16 19:46 51.16256 166.49216 34471 ft 573 kts 42°
2026-02-16 19:46 51.22183 166.57687 34469 ft 572 kts 42°
2026-02-16 19:47 51.28099 166.66174 34463 ft 571 kts 42°
2026-02-16 19:47 51.36965 166.78950 34457 ft 572 kts 42°
2026-02-16 19:48 51.42871 166.87500 34450 ft 573 kts 42°
2026-02-16 19:48 51.48741 166.96028 34447 ft 573 kts 43°
2026-02-16 19:49 51.54648 167.04640 34445 ft 574 kts 43°
2026-02-16 19:49 51.60552 167.13281 34447 ft 574 kts 43°
2026-02-16 19:50 51.66447 167.21940 34450 ft 574 kts 43°
2026-02-16 19:50 51.72335 167.30620 34449 ft 574 kts 43°
2026-02-16 19:51 51.81167 167.43701 34450 ft 575 kts 43°
2026-02-16 19:52 51.87049 167.52453 34447 ft 574 kts 43°
2026-02-16 19:52 51.92925 167.61230 34445 ft 575 kts 43°
2026-02-16 19:53 51.98789 167.70020 34442 ft 574 kts 43°
2026-02-16 19:53 52.03665 167.77355 34444 ft 574 kts 43°
2026-02-16 19:54 52.10470 167.87631 34443 ft 574 kts 43°
2026-02-16 19:54 52.16306 167.96479 34445 ft 573 kts 43°
2026-02-16 19:55 52.21194 168.03914 34448 ft 573 kts 43°
2026-02-16 19:55 52.29931 168.17264 34462 ft 573 kts 43°
2026-02-16 19:56 52.35705 168.26129 34465 ft 573 kts 43°
2026-02-16 19:56 52.41510 168.35075 34471 ft 573 kts 44°
2026-02-16 19:57 52.47315 168.44054 34483 ft 574 kts 44°
2026-02-16 19:57 52.53109 168.53050 34491 ft 574 kts 44°
2026-02-16 19:58 52.58911 168.62095 34498 ft 574 kts 44°
2026-02-16 19:58 52.64697 168.71148 34511 ft 574 kts 44°
2026-02-16 19:59 52.73322 168.84709 34517 ft 573 kts 44°
2026-02-16 20:00 52.79080 168.93806 34527 ft 572 kts 44°
2026-02-16 20:00 52.84821 169.02911 34533 ft 571 kts 44°
2026-02-16 20:01 52.90542 169.12018 34533 ft 570 kts 44°
2026-02-16 20:01 52.96250 169.21141 34548 ft 569 kts 44°
2026-02-16 20:02 53.01942 169.30274 34554 ft 569 kts 44°
2026-02-16 20:02 53.07624 169.39425 34560 ft 569 kts 44°
2026-02-16 20:03 53.13305 169.48610 34567 ft 569 kts 44°
2026-02-16 20:03 53.21809 169.62427 34581 ft 569 kts 44°
2026-02-16 20:04 53.27583 169.71337 34618 ft 567 kts 37°
2026-02-16 20:04 53.33849 169.79426 34610 ft 570 kts 37°
2026-02-16 20:05 53.40106 169.87587 34620 ft 570 kts 37°
2026-02-16 20:05 53.46357 169.95753 34621 ft 568 kts 37°
2026-02-16 20:06 53.52577 170.03913 34627 ft 568 kts 37°
2026-02-16 20:06 53.58792 170.12101 34630 ft 567 kts 37°
2026-02-16 20:07 53.68117 170.24441 34636 ft 567 kts 37°
2026-02-16 20:08 53.74324 170.32693 34638 ft 567 kts 37°
2026-02-16 20:08 53.80512 170.40956 34640 ft 566 kts 37°
2026-02-16 20:09 53.86695 170.49241 34646 ft 566 kts 37°
2026-02-16 20:09 53.92860 170.57535 34644 ft 566 kts 37°
2026-02-16 20:10 53.99021 170.65856 34656 ft 565 kts 37°
2026-02-16 20:10 54.05166 170.74188 34655 ft 565 kts 37°
2026-02-16 20:11 54.11313 170.82554 34652 ft 566 kts 37°
2026-02-16 20:11 54.20488 170.95104 34658 ft 566 kts 37°
2026-02-16 20:12 54.26622 171.03536 34658 ft 565 kts 37°
2026-02-16 20:12 54.32747 171.11988 34664 ft 565 kts 37°
2026-02-16 20:13 54.38856 171.20451 34663 ft 564 kts 37°
2026-02-16 20:13 54.44954 171.28932 34660 ft 564 kts 38°
2026-02-16 20:14 54.51044 171.37436 34660 ft 563 kts 38°
2026-02-16 20:14 54.57117 171.45950 34664 ft 563 kts 38°
2026-02-16 20:15 54.66204 171.58754 34672 ft 562 kts 38°
2026-02-16 20:16 54.72243 171.67302 34672 ft 561 kts 38°
2026-02-16 20:16 54.78277 171.75880 34667 ft 560 kts 38°
2026-02-16 20:17 54.84245 171.84397 34673 ft 558 kts 38°
2026-02-16 20:17 54.90227 171.92969 34671 ft 557 kts 38°
2026-02-16 20:18 54.96070 172.01787 34664 ft 556 kts 41°
2026-02-16 20:18 55.01817 172.10770 34669 ft 555 kts 41°
2026-02-16 20:19 55.07511 172.19829 34669 ft 553 kts 41°
2026-02-16 20:19 55.16047 172.33390 34666 ft 552 kts 41°
2026-02-16 20:20 55.21704 172.42459 34669 ft 551 kts 41°
2026-02-16 20:20 55.27329 172.51480 34670 ft 550 kts 41°
2026-02-16 20:21 55.32956 172.60562 34669 ft 549 kts 41°
2026-02-16 20:21 55.38580 172.69663 34664 ft 549 kts 41°
2026-02-16 20:22 55.44194 172.78791 34661 ft 549 kts 42°
2026-02-16 20:22 55.49800 172.87942 34662 ft 549 kts 42°
2026-02-16 20:23 55.58169 173.01673 34653 ft 549 kts 42°
2026-02-16 20:24 55.63759 173.10890 34661 ft 549 kts 42°
2026-02-16 20:24 55.69341 173.20132 34650 ft 549 kts 43°
2026-02-16 20:25 55.74912 173.29393 34648 ft 549 kts 43°
2026-02-16 20:25 55.80487 173.38701 34646 ft 549 kts 43°
2026-02-16 20:26 55.86049 173.48023 34639 ft 550 kts 43°
2026-02-16 20:26 55.91608 173.57382 34634 ft 550 kts 43°
2026-02-16 20:27 55.97130 173.66713 34629 ft 550 kts 43°
2026-02-16 20:27 56.05498 173.80931 34625 ft 552 kts 43°
2026-02-16 20:28 56.11055 173.90422 34619 ft 552 kts 44°
2026-02-16 20:28 56.16581 173.99899 34616 ft 553 kts 44°
2026-02-16 20:29 56.22140 174.09474 34611 ft 553 kts 44°
2026-02-16 20:29 56.27681 174.19059 34607 ft 553 kts 44°
2026-02-16 20:30 56.33226 174.28690 34602 ft 554 kts 44°
2026-02-16 20:30 56.38761 174.38346 34594 ft 554 kts 44°
2026-02-16 20:31 56.47069 174.52915 34584 ft 555 kts 44°
2026-02-16 20:32 56.52605 174.62677 34578 ft 555 kts 45°
2026-02-16 20:32 56.58129 174.72458 34568 ft 555 kts 45°
2026-02-16 20:33 56.63641 174.82262 34560 ft 555 kts 45°
2026-02-16 20:33 56.69151 174.92103 34552 ft 555 kts 45°
2026-02-16 20:34 56.74621 175.01915 34545 ft 555 kts 45°
2026-02-16 20:34 56.80113 175.11811 34534 ft 555 kts 45°
2026-02-16 20:35 56.85601 175.21742 34527 ft 555 kts 45°
2026-02-16 20:35 56.93827 175.36709 34516 ft 556 kts 45°
2026-02-16 20:36 56.99300 175.46721 34509 ft 556 kts 45°
2026-02-16 20:36 57.04768 175.56771 34498 ft 556 kts 45°
2026-02-16 20:37 57.10190 175.66777 34491 ft 555 kts 45°
2026-02-16 20:37 57.15632 175.76866 34480 ft 555 kts 45°
2026-02-16 20:38 57.21067 175.86987 34471 ft 556 kts 46°
2026-02-16 20:38 57.26502 175.97152 34458 ft 556 kts 46°
2026-02-16 20:39 57.34644 176.12467 34439 ft 556 kts 46°
2026-02-16 20:40 57.40065 176.22719 34425 ft 557 kts 46°
2026-02-16 20:40 57.45454 176.32958 34414 ft 558 kts 46°
2026-02-16 20:41 57.50872 176.43296 34401 ft 559 kts 46°
2026-02-16 20:41 57.56366 176.53546 34385 ft 559 kts 45°
2026-02-16 20:42 57.61835 176.63869 34372 ft 560 kts 46°
2026-02-16 20:42 57.66416 176.72544 34360 ft 560 kts 45°
2026-02-16 20:43 57.71889 176.82920 34347 ft 560 kts 46°
2026-02-16 20:43 57.80078 176.98575 34323 ft 561 kts 46°
2026-02-16 20:44 57.85495 177.08990 34301 ft 561 kts 46°
2026-02-16 20:44 57.90941 177.19501 34283 ft 561 kts 46°
2026-02-16 20:45 57.96378 177.30048 34268 ft 561 kts 46°
2026-02-16 20:45 58.01808 177.40629 34249 ft 561 kts 46°
2026-02-16 20:46 58.07217 177.51217 34236 ft 560 kts 46°
2026-02-16 20:46 58.12628 177.61861 34217 ft 560 kts 46°
2026-02-16 20:47 58.20666 177.77762 34193 ft 559 kts 47°
2026-02-16 20:48 58.26065 177.88506 34176 ft 558 kts 47°
2026-02-16 20:48 58.31419 177.99211 34168 ft 558 kts 47°
2026-02-16 20:49 58.36715 178.09850 34159 ft 557 kts 47°
2026-02-16 20:49 58.42041 178.20598 34145 ft 557 kts 47°
2026-02-16 20:50 58.47356 178.31376 34127 ft 555 kts 47°
2026-02-16 20:50 58.52635 178.42128 34117 ft 554 kts 48°
2026-02-16 20:51 58.57900 178.52906 34106 ft 553 kts 48°
2026-02-16 20:51 58.65730 178.69028 34091 ft 552 kts 48°
2026-02-16 20:52 58.70954 178.79848 34077 ft 551 kts 48°
2026-02-16 20:52 58.76155 178.90671 34071 ft 550 kts 49°
2026-02-16 20:53 58.81336 179.01503 34066 ft 549 kts 49°
2026-02-16 20:53 58.86503 179.12359 34062 ft 548 kts 49°
2026-02-16 20:54 58.91650 179.23223 34054 ft 548 kts 49°
2026-02-16 20:54 58.96754 179.34048 34056 ft 547 kts 49°
2026-02-16 20:55 59.04441 179.50447 34050 ft 546 kts 49°
2026-02-16 20:56 59.09540 179.61392 34047 ft 546 kts 50°
2026-02-16 20:56 59.14635 179.72378 34041 ft 546 kts 50°
2026-02-16 20:57 59.19716 179.83388 34046 ft 545 kts 50°
2026-02-16 20:57 59.24748 179.94345 34041 ft 544 kts 50°
2026-02-16 20:58 59.29793 -179.94618 34043 ft 544 kts 51°
2026-02-16 20:58 59.34826 -179.83554 34044 ft 543 kts 51°
2026-02-16 20:59 59.39847 -179.72463 34051 ft 543 kts 51°
2026-02-16 21:00 59.49856 -179.50190 34063 ft 543 kts 51°
2026-02-16 21:00 59.54847 -179.39005 34064 ft 543 kts 51°
2026-02-16 21:01 59.59787 -179.27878 34065 ft 543 kts 52°
2026-02-16 21:01 59.64760 -179.16622 34071 ft 543 kts 52°
2026-02-16 21:02 59.69718 -179.05345 34084 ft 543 kts 52°
2026-02-16 21:02 59.74669 -178.94029 34083 ft 543 kts 52°
2026-02-16 21:03 59.79617 -178.82662 34095 ft 544 kts 52°
2026-02-16 21:03 59.87046 -178.65492 34108 ft 546 kts 53°
2026-02-16 21:04 59.91954 -178.54079 34113 ft 546 kts 53°
2026-02-16 21:04 59.96885 -178.42551 34132 ft 547 kts 53°
2026-02-16 21:05 60.01819 -178.30963 34140 ft 546 kts 53°
2026-02-16 21:05 60.06726 -178.19377 34149 ft 545 kts 53°
2026-02-16 21:06 60.11621 -178.07761 34159 ft 545 kts 54°
2026-02-16 21:06 60.16505 -177.96113 34166 ft 545 kts 54°
2026-02-16 21:07 60.24786 -177.80327 34199 ft 551 kts 42°
2026-02-16 21:08 60.30738 -177.70577 34208 ft 551 kts 43°
2026-02-16 21:08 60.36644 -177.60725 34215 ft 550 kts 43°
2026-02-16 21:09 60.42520 -177.50958 34218 ft 550 kts 43°
2026-02-16 21:09 60.48408 -177.41072 34224 ft 550 kts 43°
2026-02-16 21:10 60.54299 -177.31164 34226 ft 549 kts 43°
2026-02-16 21:10 60.60170 -177.21224 34232 ft 549 kts 43°
2026-02-16 21:11 60.66030 -177.11260 34238 ft 549 kts 44°
2026-02-16 21:11 60.74803 -176.96249 34252 ft 548 kts 44°
2026-02-16 21:12 60.80647 -176.86191 34263 ft 549 kts 44°
2026-02-16 21:12 60.86451 -176.76150 34266 ft 548 kts 44°
2026-02-16 21:13 60.92282 -176.66012 34276 ft 548 kts 44°
2026-02-16 21:13 60.98096 -176.55855 34290 ft 548 kts 44°
2026-02-16 21:14 61.03901 -176.45662 34293 ft 548 kts 45°
2026-02-16 21:14 61.09702 -176.35424 34301 ft 549 kts 45°
2026-02-16 21:15 61.18373 -176.20028 34315 ft 550 kts 45°
2026-02-16 21:16 61.24162 -176.09683 34321 ft 549 kts 45°
2026-02-16 21:16 61.29955 -175.99277 34326 ft 549 kts 45°
2026-02-16 21:17 61.35721 -175.88871 34334 ft 548 kts 45°
2026-02-16 21:17 61.41479 -175.78423 34340 ft 548 kts 46°
2026-02-16 21:18 61.47195 -175.68001 34348 ft 548 kts 46°
2026-02-16 21:18 61.52938 -175.57474 34354 ft 548 kts 46°
2026-02-16 21:19 61.58672 -175.46912 34366 ft 548 kts 46°
2026-02-16 21:19 61.67266 -175.30978 34382 ft 549 kts 46°
2026-02-16 21:20 61.72985 -175.20308 34386 ft 549 kts 46°
2026-02-16 21:20 61.78700 -175.09587 34391 ft 549 kts 46°
2026-02-16 21:21 61.84365 -174.98907 34396 ft 549 kts 46°
2026-02-16 21:21 61.90060 -174.88114 34407 ft 548 kts 47°
2026-02-16 21:22 61.95751 -174.77272 34418 ft 548 kts 47°
2026-02-16 21:22 62.01412 -174.66431 34432 ft 548 kts 47°
2026-02-16 21:23 62.09856 -174.50155 34449 ft 547 kts 47°
2026-02-16 21:24 62.15495 -174.39215 34465 ft 547 kts 47°
2026-02-16 21:24 62.21127 -174.28230 34483 ft 547 kts 47°
2026-02-16 21:25 62.26747 -174.17209 34489 ft 548 kts 47°
2026-02-16 21:25 62.32368 -174.06130 34506 ft 548 kts 48°
2026-02-16 21:26 62.37980 -173.95008 34518 ft 548 kts 48°
2026-02-16 21:26 62.43550 -173.83913 34529 ft 548 kts 48°
2026-02-16 21:27 62.49148 -173.72701 34546 ft 549 kts 48°
2026-02-16 21:27 62.57541 -173.55776 34571 ft 550 kts 48°
2026-02-16 21:28 62.63138 -173.44415 34588 ft 551 kts 48°
2026-02-16 21:28 62.68733 -173.32996 34603 ft 551 kts 48°
2026-02-16 21:29 62.74317 -173.21535 34618 ft 552 kts 48°
2026-02-16 21:29 62.78966 -173.11948 34629 ft 553 kts 48°
2026-02-16 21:30 62.85456 -172.98488 34650 ft 553 kts 49°
2026-02-16 21:31 62.93827 -172.81001 34675 ft 554 kts 49°
2026-02-16 21:31 63.01250 -172.65371 34696 ft 556 kts 49°
2026-02-16 21:32 63.06825 -172.53556 34724 ft 557 kts 49°
2026-02-16 21:32 63.12403 -172.41670 34734 ft 557 kts 49°
2026-02-16 21:33 63.17968 -172.29742 34751 ft 557 kts 49°
2026-02-16 21:33 63.23526 -172.17761 34768 ft 557 kts 49°
2026-02-16 21:34 63.29078 -172.05726 34783 ft 557 kts 49°
2026-02-16 21:34 63.34621 -171.93645 34809 ft 558 kts 49°
2026-02-16 21:35 63.42917 -171.75430 34845 ft 558 kts 49°
2026-02-16 21:36 63.48430 -171.63238 34870 ft 558 kts 49°
2026-02-16 21:36 63.53947 -171.50968 34876 ft 559 kts 49°
2026-02-16 21:37 63.59420 -171.38726 34887 ft 560 kts 49°
2026-02-16 21:37 63.64933 -171.26323 34898 ft 560 kts 49°
2026-02-16 21:38 63.70434 -171.13872 34912 ft 561 kts 49°
2026-02-16 21:38 63.75930 -171.01362 34970 ft 561 kts 49°
2026-02-16 21:39 63.81416 -170.88800 34976 ft 561 kts 49°
2026-02-16 21:39 63.89641 -170.69827 34988 ft 562 kts 49°
2026-02-16 21:40 63.95122 -170.57093 34993 ft 562 kts 49°
2026-02-16 21:40 64.00581 -170.44330 35015 ft 563 kts 49°
2026-02-16 21:41 64.06001 -170.31584 35044 ft 563 kts 49°
2026-02-16 21:41 64.11444 -170.18706 35058 ft 563 kts 49°
2026-02-16 21:42 64.16884 -170.05759 35076 ft 564 kts 49°
2026-02-16 21:43 64.25016 -169.86259 35094 ft 564 kts 49°
2026-02-16 21:43 64.33127 -169.66630 35112 ft 563 kts 49°
2026-02-16 21:44 64.38514 -169.53495 35125 ft 563 kts 49°
2026-02-16 21:44 64.43885 -169.40317 35139 ft 563 kts 49°
2026-02-16 21:45 64.49251 -169.27071 35151 ft 562 kts 49°
2026-02-16 21:45 64.54593 -169.13803 35159 ft 562 kts 49°
2026-02-16 21:46 64.59912 -169.00513 35168 ft 561 kts 49°
2026-02-16 21:46 64.65215 -168.87178 35180 ft 560 kts 49°
2026-02-16 21:47 64.73148 -168.67077 35187 ft 560 kts 49°
2026-02-16 21:48 64.78383 -168.53707 35201 ft 560 kts 49°
2026-02-16 21:48 64.83670 -168.40122 35208 ft 560 kts 49°
2026-02-16 21:49 64.88879 -168.26654 35219 ft 560 kts 49°
2026-02-16 21:49 64.94110 -168.13048 35223 ft 560 kts 48°
2026-02-16 21:49 64.96933 -168.06755 35267 ft 559 kts 36°
2026-02-16 21:50 65.00182 -168.01742 35264 ft 557 kts 24°
2026-02-16 21:50 65.07236 -167.94386 35251 ft 554 kts 19°
2026-02-16 21:51 65.14326 -167.87278 35266 ft 552 kts 19°
2026-02-16 21:51 65.24908 -167.76500 35278 ft 551 kts 19°
2026-02-16 21:52 65.31957 -167.69292 35287 ft 551 kts 19°
2026-02-16 21:52 65.38986 -167.62045 35302 ft 550 kts 19°
2026-02-16 21:53 65.46011 -167.54774 35299 ft 549 kts 19°
2026-02-16 21:53 65.52985 -167.47503 35301 ft 549 kts 19°
2026-02-16 21:54 65.59987 -167.40167 35307 ft 549 kts 19°
2026-02-16 21:54 65.66984 -167.32788 35305 ft 548 kts 19°
2026-02-16 21:55 65.77465 -167.21657 35301 ft 548 kts 19°
2026-02-16 21:56 65.84449 -167.14183 35303 ft 547 kts 19°
2026-02-16 21:56 65.91405 -167.06696 35312 ft 546 kts 19°
2026-02-16 21:57 65.98354 -166.99171 35322 ft 546 kts 19°
2026-02-16 21:57 66.05298 -166.91607 35327 ft 545 kts 19°
2026-02-16 21:58 66.12226 -166.84014 35345 ft 544 kts 19°
2026-02-16 21:58 66.19133 -166.76399 35356 ft 543 kts 19°
2026-02-16 21:59 66.26023 -166.68757 35367 ft 542 kts 19°
2026-02-16 21:59 66.36333 -166.57238 35380 ft 540 kts 19°
2026-02-16 22:00 66.43138 -166.49575 35383 ft 539 kts 19°
2026-02-16 22:00 66.49973 -166.41834 35392 ft 538 kts 19°
2026-02-16 22:01 66.56792 -166.34063 35400 ft 538 kts 19°
2026-02-16 22:01 66.63603 -166.26254 35413 ft 537 kts 19°
2026-02-16 22:02 66.70408 -166.18405 35432 ft 537 kts 19°
2026-02-16 22:02 66.77186 -166.10539 35429 ft 535 kts 19°
2026-02-16 22:03 66.87310 -165.98701 35447 ft 535 kts 19°
2026-02-16 22:04 66.97423 -165.86767 35462 ft 535 kts 18°
2026-02-16 22:04 67.04183 -165.78728 35462 ft 535 kts 19°
2026-02-16 22:05 67.10941 -165.70641 35479 ft 536 kts 18°
2026-02-16 22:05 67.17680 -165.62525 35485 ft 534 kts 19°
2026-02-16 22:06 67.24402 -165.54385 35494 ft 533 kts 19°
2026-02-16 22:06 67.31109 -165.46208 35500 ft 532 kts 19°
2026-02-16 22:07 67.41141 -165.33885 35511 ft 532 kts 19°
2026-02-16 22:08 67.47812 -165.25622 35517 ft 531 kts 19°
2026-02-16 22:08 67.54482 -165.17316 35525 ft 531 kts 19°
2026-02-16 22:09 67.61092 -165.09025 35531 ft 529 kts 19°
2026-02-16 22:09 67.67724 -165.00662 35535 ft 528 kts 19°
2026-02-16 22:10 67.74340 -164.92261 35541 ft 527 kts 19°
2026-02-16 22:10 67.80940 -164.83832 35538 ft 527 kts 19°
2026-02-16 22:11 67.90813 -164.71117 35541 ft 525 kts 19°
2026-02-16 22:11 67.97377 -164.62600 35540 ft 524 kts 19°
2026-02-16 22:12 68.03927 -164.54044 35541 ft 524 kts 19°
2026-02-16 22:12 68.10466 -164.45450 35546 ft 523 kts 19°
2026-02-16 22:13 68.16996 -164.36812 35538 ft 523 kts 19°
2026-02-16 22:13 68.23525 -164.28119 35548 ft 522 kts 19°
2026-02-16 22:14 68.29987 -164.19464 35553 ft 521 kts 19°
2026-02-16 22:14 68.36469 -164.10721 35549 ft 520 kts 19°
2026-02-16 22:15 68.46184 -163.97520 35550 ft 519 kts 19°
2026-02-16 22:16 68.51550 -163.90168 35556 ft 518 kts 19°
2026-02-16 22:16 68.59039 -163.79850 35557 ft 518 kts 19°
2026-02-16 22:17 68.64382 -163.72434 35566 ft 516 kts 19°
2026-02-16 22:17 68.70780 -163.63512 35561 ft 515 kts 20°
2026-02-16 22:18 68.77165 -163.54541 35570 ft 514 kts 20°
2026-02-16 22:18 68.83532 -163.45543 35568 ft 514 kts 20°
2026-02-16 22:19 68.93061 -163.31964 35576 ft 513 kts 20°
2026-02-16 22:19 68.99402 -163.22853 35585 ft 512 kts 20°
2026-02-16 22:20 69.05687 -163.13765 35585 ft 511 kts 20°
2026-02-16 22:20 69.12035 -163.04526 35586 ft 511 kts 20°
2026-02-16 22:21 69.18293 -162.95357 35595 ft 511 kts 21°
2026-02-16 22:21 69.24608 -162.86044 35594 ft 512 kts 21°
2026-02-16 22:22 69.30907 -162.76691 35600 ft 510 kts 21°
2026-02-16 22:22 69.37198 -162.67292 35602 ft 510 kts 21°
2026-02-16 22:23 69.46592 -162.53139 35610 ft 510 kts 21°
2026-02-16 22:24 69.52796 -162.43707 35618 ft 507 kts 21°
2026-02-16 22:24 69.59022 -162.34191 35619 ft 507 kts 21°
2026-02-16 22:25 69.65232 -162.24625 35632 ft 506 kts 22°
2026-02-16 22:25 69.71427 -162.15024 35621 ft 505 kts 22°
2026-02-16 22:26 69.77600 -162.05388 35635 ft 503 kts 22°
2026-02-16 22:26 69.83765 -161.95707 35642 ft 503 kts 22°
2026-02-16 22:27 69.92966 -161.81128 35649 ft 501 kts 22°
2026-02-16 22:27 69.99042 -161.71424 35656 ft 500 kts 22°
2026-02-16 22:28 70.05141 -161.61614 35662 ft 500 kts 23°
2026-02-16 22:28 70.11225 -161.51763 35667 ft 499 kts 23°
2026-02-16 22:29 70.17299 -161.41862 35673 ft 498 kts 23°
2026-02-16 22:29 70.23358 -161.31918 35675 ft 498 kts 23°
2026-02-16 22:30 70.32427 -161.16907 35677 ft 497 kts 24°
2026-02-16 22:31 70.41465 -161.01792 35685 ft 496 kts 24°
2026-02-16 22:31 70.47437 -160.91721 35681 ft 496 kts 24°
2026-02-16 22:32 70.53437 -160.81531 35689 ft 495 kts 24°
2026-02-16 22:32 70.56431 -160.76411 35314 ft 495 kts 20°
2026-02-16 22:32 70.59378 -160.71339 35457 ft 483 kts 20°
2026-02-16 22:33 70.62301 -160.66341 35579 ft 484 kts 20°
2026-02-16 22:33 70.65244 -160.61304 35681 ft 489 kts 21°
2026-02-16 22:33 70.71176 -160.50984 35685 ft 491 kts 21°
2026-02-16 22:34 70.77047 -160.40748 35688 ft 489 kts 21°
2026-02-16 22:34 70.82929 -160.30413 35691 ft 488 kts 21°
2026-02-16 22:35 70.91734 -160.14809 35691 ft 487 kts 21°
2026-02-16 22:36 71.00507 -159.99036 35696 ft 489 kts 25°
2026-02-16 22:36 71.06262 -159.87815 35701 ft 489 kts 23°
2026-02-16 22:37 71.12031 -159.76543 35687 ft 490 kts 24°
2026-02-16 22:37 71.17770 -159.65194 35702 ft 489 kts 24°
2026-02-16 22:38 71.23469 -159.53892 35705 ft 489 kts 24°
2026-02-16 22:38 71.29225 -159.42361 35702 ft 490 kts 24°
2026-02-16 22:39 71.37786 -159.25083 35711 ft 490 kts 25°
2026-02-16 22:40 71.43503 -159.13437 35709 ft 491 kts 25°
2026-02-16 22:40 71.49235 -159.01676 35712 ft 492 kts 25°
2026-02-16 22:41 71.54964 -158.89836 35709 ft 493 kts 25°
2026-02-16 22:41 71.60693 -158.77908 35720 ft 493 kts 25°
2026-02-16 22:42 71.66412 -158.65913 35717 ft 493 kts 26°
2026-02-16 22:42 71.72128 -158.53840 35709 ft 493 kts 26°
2026-02-16 22:43 71.80658 -158.35651 35713 ft 494 kts 26°
2026-02-16 22:43 71.86373 -158.23354 35716 ft 494 kts 26°
2026-02-16 22:44 71.92067 -158.11009 35708 ft 494 kts 26°
2026-02-16 22:44 71.97764 -157.98564 35712 ft 494 kts 27°
2026-02-16 22:45 72.03451 -157.86048 35710 ft 494 kts 27°
2026-02-16 22:45 72.09125 -157.73466 35717 ft 495 kts 27°
2026-02-16 22:46 72.14800 -157.60787 35714 ft 494 kts 27°
2026-02-16 22:46 72.20470 -157.48023 35710 ft 494 kts 27°
2026-02-16 22:47 72.28938 -157.28774 35708 ft 494 kts 28°
2026-02-16 22:48 72.34563 -157.15867 35704 ft 493 kts 28°
2026-02-16 22:48 72.40183 -157.02874 35700 ft 493 kts 28°
2026-02-16 22:49 72.45790 -156.89807 35703 ft 493 kts 28°
2026-02-16 22:49 72.51351 -156.76750 35702 ft 493 kts 29°
2026-02-16 22:50 72.56942 -156.63519 35700 ft 493 kts 29°
2026-02-16 22:50 72.62530 -156.50190 35696 ft 494 kts 29°
2026-02-16 22:51 72.70918 -156.29990 35695 ft 494 kts 30°
2026-02-16 22:51 72.76499 -156.16413 35674 ft 494 kts 30°
2026-02-16 22:52 72.82029 -156.02858 35683 ft 494 kts 30°
2026-02-16 22:52 72.87586 -155.89124 35693 ft 493 kts 30°
2026-02-16 22:53 72.93118 -155.75347 35693 ft 493 kts 30°
2026-02-16 22:53 72.98648 -155.61463 35689 ft 494 kts 30°
2026-02-16 22:54 73.04175 -155.47474 35689 ft 494 kts 31°
2026-02-16 22:54 73.09697 -155.33385 35681 ft 494 kts 31°
2026-02-16 22:55 73.17948 -155.12119 35678 ft 494 kts 31°
2026-02-16 22:56 73.23437 -154.97828 35681 ft 494 kts 31°
2026-02-16 22:56 73.28917 -154.83443 35672 ft 494 kts 32°
2026-02-16 22:57 73.34355 -154.69051 35676 ft 494 kts 32°
2026-02-16 22:57 73.39822 -154.54463 35673 ft 494 kts 32°
2026-02-16 22:58 73.45271 -154.39801 35659 ft 494 kts 32°
2026-02-16 22:58 73.50709 -154.25046 35665 ft 494 kts 32°
2026-02-16 22:59 73.58838 -154.02766 35668 ft 493 kts 32°
2026-02-16 22:59 73.64238 -153.87807 35667 ft 493 kts 33°
2026-02-16 23:00 73.69638 -153.72724 35664 ft 493 kts 33°
2026-02-16 23:00 73.74983 -153.57666 35664 ft 492 kts 33°
2026-02-16 23:01 73.80349 -153.42423 35664 ft 492 kts 33°
2026-02-16 23:01 73.85699 -153.27096 35664 ft 492 kts 33°
2026-02-16 23:02 73.91042 -153.11656 35654 ft 492 kts 34°
2026-02-16 23:02 73.96376 -152.96112 35657 ft 492 kts 34°
2026-02-16 23:03 74.03474 -152.75220 35650 ft 493 kts 34°
2026-02-16 23:04 74.09645 -152.56856 35651 ft 493 kts 34°
2026-02-16 23:04 74.14083 -152.43538 35649 ft 492 kts 34°
2026-02-16 23:05 74.19333 -152.27653 35653 ft 493 kts 35°
2026-02-16 23:05 74.24618 -152.11523 35647 ft 493 kts 35°
2026-02-16 23:06 74.29878 -151.95328 35644 ft 493 kts 35°
2026-02-16 23:06 74.35150 -151.78954 35640 ft 494 kts 36°
2026-02-16 23:07 74.42974 -151.54381 35640 ft 493 kts 36°
2026-02-16 23:07 74.48195 -151.37798 35642 ft 493 kts 36°
2026-02-16 23:08 74.53409 -151.21090 35638 ft 493 kts 36°
2026-02-16 23:08 74.58609 -151.04278 35635 ft 493 kts 37°
2026-02-16 23:09 74.63789 -150.87380 35627 ft 493 kts 37°
2026-02-16 23:09 74.68956 -150.70369 35619 ft 492 kts 37°
2026-02-16 23:10 74.74116 -150.53225 35619 ft 492 kts 37°
2026-02-16 23:10 74.79259 -150.35981 35620 ft 492 kts 37°
2026-02-16 23:11 74.86938 -150.09941 35621 ft 492 kts 38°
2026-02-16 23:12 74.92000 -149.92572 35616 ft 491 kts 38°
2026-02-16 23:12 74.97078 -149.74993 35610 ft 491 kts 38°
2026-02-16 23:13 75.02148 -149.57274 35613 ft 492 kts 38°
2026-02-16 23:13 75.07209 -149.39422 35608 ft 492 kts 39°
2026-02-16 23:14 75.12261 -149.21436 35607 ft 492 kts 39°
2026-02-16 23:14 75.17284 -149.03382 35601 ft 491 kts 39°
2026-02-16 23:15 75.24797 -148.76057 35598 ft 491 kts 39°
2026-02-16 23:15 75.29790 -148.57679 35595 ft 492 kts 39°
2026-02-16 23:16 75.34775 -148.39156 35598 ft 492 kts 40°
2026-02-16 23:16 75.39722 -148.20597 35590 ft 492 kts 40°
2026-02-16 23:17 75.44676 -148.01833 35586 ft 492 kts 40°
2026-02-16 23:17 75.49615 -147.82942 35583 ft 492 kts 40°
2026-02-16 23:18 75.54536 -147.63938 35578 ft 492 kts 41°
2026-02-16 23:18 75.59445 -147.44793 35578 ft 491 kts 41°
2026-02-16 23:19 75.66773 -147.15855 35570 ft 491 kts 41°
2026-02-16 23:20 75.71628 -146.96451 35574 ft 491 kts 41°
2026-02-16 23:20 75.76439 -146.77026 35569 ft 490 kts 41°
2026-02-16 23:21 75.81256 -146.57387 35565 ft 490 kts 42°
2026-02-16 23:21 75.86051 -146.37643 35559 ft 490 kts 42°
2026-02-16 23:22 75.90835 -146.17741 35553 ft 490 kts 42°
2026-02-16 23:22 75.95611 -145.97676 35553 ft 491 kts 43°
2026-02-16 23:23 76.02744 -145.67321 35551 ft 491 kts 43°
2026-02-16 23:23 76.07476 -145.46921 35546 ft 491 kts 43°
2026-02-16 23:24 76.12186 -145.26412 35543 ft 490 kts 43°
2026-02-16 23:24 76.16882 -145.05751 35543 ft 490 kts 44°
2026-02-16 23:25 76.21523 -144.85121 35542 ft 489 kts 44°
2026-02-16 23:25 76.26174 -144.64231 35534 ft 490 kts 44°
2026-02-16 23:26 76.30817 -144.43157 35534 ft 490 kts 44°
2026-02-16 23:26 76.35433 -144.21982 35529 ft 490 kts 44°
2026-02-16 23:27 76.42330 -143.89928 35520 ft 489 kts 45°
2026-02-16 23:28 76.46896 -143.68423 35518 ft 489 kts 45°
2026-02-16 23:28 76.53688 -143.36003 35515 ft 489 kts 45°
2026-02-16 23:29 76.58205 -143.14153 35510 ft 488 kts 45°
2026-02-16 23:29 76.62698 -142.92185 35503 ft 487 kts 46°
2026-02-16 23:30 76.67162 -142.70119 35499 ft 487 kts 46°
2026-02-16 23:30 76.71608 -142.47901 35494 ft 487 kts 46°
2026-02-16 23:31 76.78219 -142.14412 35488 ft 487 kts 46°
2026-02-16 23:32 76.82612 -141.91851 35483 ft 487 kts 47°
2026-02-16 23:32 76.86984 -141.69150 35481 ft 486 kts 47°
2026-02-16 23:33 76.91334 -141.46306 35477 ft 486 kts 47°
2026-02-16 23:33 76.95663 -141.23321 35469 ft 486 kts 47°
2026-02-16 23:34 76.99959 -141.00167 35468 ft 487 kts 51°
2026-02-16 23:34 77.03817 -140.75318 35463 ft 489 kts 53°
2026-02-16 23:35 77.09549 -140.37684 35454 ft 488 kts 53°
2026-02-16 23:35 77.13340 -140.12382 35452 ft 489 kts 53°
2026-02-16 23:36 77.17087 -139.87090 35451 ft 489 kts 53°
2026-02-16 23:36 77.20833 -139.61479 35430 ft 489 kts 54°
2026-02-16 23:37 77.24552 -139.35754 35431 ft 489 kts 54°
2026-02-16 23:37 77.28244 -139.09876 35437 ft 489 kts 54°
2026-02-16 23:38 77.31908 -138.83878 35429 ft 488 kts 54°
2026-02-16 23:38 77.35529 -138.57861 35426 ft 489 kts 55°
2026-02-16 23:39 77.40938 -138.18368 35416 ft 488 kts 55°
2026-02-16 23:40 77.44511 -137.91862 35411 ft 488 kts 56°
2026-02-16 23:40 77.48057 -137.65212 35407 ft 488 kts 56°
2026-02-16 23:41 77.51560 -137.38546 35403 ft 488 kts 56°
2026-02-16 23:41 77.55050 -137.11627 35397 ft 488 kts 56°
2026-02-16 23:42 77.58514 -136.84551 35391 ft 488 kts 57°
2026-02-16 23:42 77.61948 -136.57353 35394 ft 487 kts 57°
2026-02-16 23:43 77.67043 -136.16314 35380 ft 486 kts 57°
2026-02-16 23:43 77.70402 -135.88797 35386 ft 486 kts 57°
2026-02-16 23:44 77.73708 -135.61340 35375 ft 486 kts 58°
2026-02-16 23:44 77.77005 -135.33589 35368 ft 485 kts 58°
2026-02-16 23:45 77.80268 -135.05744 35358 ft 485 kts 58°
2026-02-16 23:45 77.83502 -134.77758 35357 ft 485 kts 58°
2026-02-16 23:46 77.86712 -134.49588 35354 ft 485 kts 59°
2026-02-16 23:46 77.89890 -134.21295 35347 ft 485 kts 59°
2026-02-16 23:47 77.94608 -133.78548 35333 ft 485 kts 59°
2026-02-16 23:48 77.97695 -133.50063 35335 ft 485 kts 59°
2026-02-16 23:48 78.00772 -133.21266 35327 ft 484 kts 60°
2026-02-16 23:49 78.03823 -132.92281 35323 ft 485 kts 60°
2026-02-16 23:49 78.06842 -132.63169 35323 ft 485 kts 60°
2026-02-16 23:50 78.09831 -132.33920 35317 ft 485 kts 60°
2026-02-16 23:50 78.12790 -132.04524 35315 ft 484 kts 61°
2026-02-16 23:51 78.17170 -131.60159 35304 ft 485 kts 61°
2026-02-16 23:51 78.19570 -131.35422 35302 ft 484 kts 62°
2026-02-16 23:52 78.22883 -131.00719 35298 ft 484 kts 62°
2026-02-16 23:52 78.25701 -130.70705 35293 ft 484 kts 62°
2026-02-16 23:53 78.28018 -130.45648 35285 ft 484 kts 63°
2026-02-16 23:53 78.30778 -130.15376 35280 ft 485 kts 63°
2026-02-16 23:54 78.33507 -129.84953 35273 ft 485 kts 63°
2026-02-16 23:55 78.38874 -129.23607 35269 ft 484 kts 64°
2026-02-16 23:55 78.41512 -128.92688 35263 ft 484 kts 64°
2026-02-16 23:56 78.44095 -128.61896 35259 ft 485 kts 64°
2026-02-16 23:56 78.46661 -128.30772 35257 ft 485 kts 65°
2026-02-16 23:57 78.49194 -127.99524 35249 ft 484 kts 65°
2026-02-16 23:57 78.51690 -127.68169 35243 ft 484 kts 65°
2026-02-16 23:58 78.54154 -127.36661 35242 ft 484 kts 65°
2026-02-16 23:58 78.56583 -127.05041 35232 ft 484 kts 66°
2026-02-16 23:59 78.60167 -126.57312 35225 ft 484 kts 66°
2026-02-17 00:00 78.62508 -126.25393 35223 ft 484 kts 66°
2026-02-17 00:00 78.64817 -125.93316 35216 ft 484 kts 67°
2026-02-17 00:01 78.67078 -125.61285 35212 ft 484 kts 67°
2026-02-17 00:01 78.69318 -125.28941 35207 ft 484 kts 68°
2026-02-17 00:02 78.71522 -124.96485 35204 ft 484 kts 68°
2026-02-17 00:02 78.73696 -124.63825 35197 ft 485 kts 68°
2026-02-17 00:03 78.76896 -124.14493 35192 ft 486 kts 69°
2026-02-17 00:03 78.78983 -123.81474 35179 ft 486 kts 69°
2026-02-17 00:04 78.81023 -123.48519 35186 ft 486 kts 69°
2026-02-17 00:04 78.83036 -123.15279 35177 ft 486 kts 69°
2026-02-17 00:05 78.85014 -122.81886 35171 ft 486 kts 70°
2026-02-17 00:05 78.86955 -122.48381 35162 ft 485 kts 70°
2026-02-17 00:06 78.88854 -122.14844 35165 ft 485 kts 70°
2026-02-17 00:06 78.90714 -121.81239 35157 ft 485 kts 71°
2026-02-17 00:07 78.93422 -121.30838 35151 ft 484 kts 71°
2026-02-17 00:08 78.95185 -120.97021 35150 ft 484 kts 72°
2026-02-17 00:08 78.96911 -120.63074 35144 ft 484 kts 72°
2026-02-17 00:09 78.98598 -120.29057 35138 ft 483 kts 72°
2026-02-17 00:09 79.00446 -119.95274 35153 ft 479 kts 63°
2026-02-17 00:10 79.03209 -119.63606 35130 ft 480 kts 62°
2026-02-17 00:10 79.05994 -119.31634 35129 ft 481 kts 63°
2026-02-17 00:11 79.10085 -118.83344 35122 ft 480 kts 63°
2026-02-17 00:11 79.12769 -118.51003 35113 ft 480 kts 63°
2026-02-17 00:12 79.15422 -118.18471 35106 ft 480 kts 64°
2026-02-17 00:12 79.18036 -117.85835 35104 ft 480 kts 64°
2026-02-17 00:13 79.20619 -117.53015 35107 ft 480 kts 64°
2026-02-17 00:13 79.23153 -117.20225 35101 ft 480 kts 64°
2026-02-17 00:14 79.25668 -116.87056 35096 ft 480 kts 65°
2026-02-17 00:14 79.28145 -116.53793 35096 ft 481 kts 65°
2026-02-17 00:15 79.31808 -116.03408 35090 ft 482 kts 66°
2026-02-17 00:16 79.34205 -115.69615 35087 ft 482 kts 66°
2026-02-17 00:16 79.36565 -115.35698 35078 ft 482 kts 66°
2026-02-17 00:17 79.38873 -115.01865 35075 ft 481 kts 67°
2026-02-17 00:17 79.41156 -114.67700 35072 ft 481 kts 67°
2026-02-17 00:18 79.43403 -114.33390 35073 ft 481 kts 68°
2026-02-17 00:18 79.45613 -113.98932 35068 ft 482 kts 68°
2026-02-17 00:19 79.48866 -113.46835 35065 ft 482 kts 68°
2026-02-17 00:19 79.50973 -113.12159 35062 ft 482 kts 69°
2026-02-17 00:20 79.53050 -112.77218 35058 ft 481 kts 69°
2026-02-17 00:20 79.55087 -112.42186 35052 ft 481 kts 69°
2026-02-17 00:21 79.57090 -112.06937 35053 ft 482 kts 70°
2026-02-17 00:21 79.59056 -111.71518 35053 ft 482 kts 70°
2026-02-17 00:22 79.60985 -111.35934 35044 ft 484 kts 71°
2026-02-17 00:22 79.62880 -111.00110 35039 ft 484 kts 71°
2026-02-17 00:23 79.65631 -110.46471 35041 ft 482 kts 71°
2026-02-17 00:24 79.67421 -110.10459 35040 ft 482 kts 72°
2026-02-17 00:24 79.69167 -109.74382 35040 ft 482 kts 72°
2026-02-17 00:25 79.70875 -109.38160 35034 ft 481 kts 73°
2026-02-17 00:25 79.72539 -109.01901 35030 ft 481 kts 73°
2026-02-17 00:26 79.74165 -108.65455 35030 ft 482 kts 73°
2026-02-17 00:26 79.75753 -108.28839 35034 ft 483 kts 74°
2026-02-17 00:27 79.78058 -107.73698 35028 ft 483 kts 75°
2026-02-17 00:27 79.79545 -107.36768 35027 ft 482 kts 75°
2026-02-17 00:28 79.80986 -106.99827 35026 ft 482 kts 75°
2026-02-17 00:28 79.82375 -106.63089 35030 ft 481 kts 76°
2026-02-17 00:29 79.83734 -106.25938 35022 ft 483 kts 76°
2026-02-17 00:29 79.85053 -105.88630 35031 ft 483 kts 76°
2026-02-17 00:30 79.86332 -105.51160 35032 ft 484 kts 77°
2026-02-17 00:30 79.87569 -105.13550 35035 ft 484 kts 77°
2026-02-17 00:31 79.89341 -104.57128 35047 ft 483 kts 78°
2026-02-17 00:32 79.90467 -104.19456 35046 ft 482 kts 78°
2026-02-17 00:32 79.91551 -103.81692 35057 ft 482 kts 79°
2026-02-17 00:33 79.92592 -103.43840 35056 ft 483 kts 79°
2026-02-17 00:33 79.93589 -103.05923 35056 ft 482 kts 79°
2026-02-17 00:34 79.94543 -102.67947 35063 ft 483 kts 80°
2026-02-17 00:34 79.95454 -102.29867 35074 ft 482 kts 80°
2026-02-17 00:35 79.96735 -101.72861 35081 ft 483 kts 81°
2026-02-17 00:35 79.97537 -101.34651 35080 ft 482 kts 81°
2026-02-17 00:36 79.98295 -100.96369 35089 ft 482 kts 82°
2026-02-17 00:36 79.99009 -100.58055 35094 ft 482 kts 82°
2026-02-17 00:37 79.99679 -100.19699 35100 ft 482 kts 82°
2026-02-17 00:37 80.00559 -99.81570 35097 ft 480 kts 78°
2026-02-17 00:38 80.01655 -99.43597 35104 ft 481 kts 78°
2026-02-17 00:38 80.02709 -99.05723 35113 ft 481 kts 79°
2026-02-17 00:39 80.04215 -98.48422 35127 ft 481 kts 79°
2026-02-17 00:40 80.05167 -98.10103 35131 ft 481 kts 80°
2026-02-17 00:40 80.05924 -97.78194 35136 ft 481 kts 81°
2026-02-17 00:41 80.06792 -97.39806 35142 ft 481 kts 81°
2026-02-17 00:41 80.07620 -97.01329 35142 ft 481 kts 81°
2026-02-17 00:42 80.08400 -96.62813 35141 ft 481 kts 82°
2026-02-17 00:42 80.09139 -96.24248 35142 ft 481 kts 82°
2026-02-17 00:43 80.10164 -95.66166 35134 ft 482 kts 83°
2026-02-17 00:43 80.10793 -95.27364 35120 ft 483 kts 84°
2026-02-17 00:44 80.11379 -94.88401 35116 ft 483 kts 84°
2026-02-17 00:44 80.11916 -94.49669 35095 ft 483 kts 85°
2026-02-17 00:45 80.12415 -94.10398 35075 ft 483 kts 85°
2026-02-17 00:45 80.12864 -93.71600 35041 ft 483 kts 85°
2026-02-17 00:46 80.13270 -93.32447 35016 ft 483 kts 86°
2026-02-17 00:46 80.13631 -92.93322 34997 ft 483 kts 86°
2026-02-17 00:47 80.14088 -92.34510 34981 ft 484 kts 87°
2026-02-17 00:48 80.14337 -91.95233 34978 ft 485 kts 87°
2026-02-17 00:48 80.14541 -91.55836 34993 ft 485 kts 88°
2026-02-17 00:49 80.14697 -91.16772 35012 ft 484 kts 88°
2026-02-17 00:49 80.14809 -90.77490 35040 ft 484 kts 89°
2026-02-17 00:50 80.14877 -90.38197 35071 ft 484 kts 89°
2026-02-17 00:50 80.14898 -89.98889 35111 ft 485 kts 89°
2026-02-17 00:51 80.14845 -89.39778 35141 ft 485 kts 90°
2026-02-17 00:51 80.14752 -89.00349 35162 ft 485 kts 90°
2026-02-17 00:52 80.14614 -88.61021 35168 ft 485 kts 91°
2026-02-17 00:52 80.14430 -88.21665 35176 ft 484 kts 91°
2026-02-17 00:53 80.14201 -87.82402 35179 ft 484 kts 92°
2026-02-17 00:53 80.13927 -87.43175 35181 ft 484 kts 92°
2026-02-17 00:54 80.13608 -87.03997 35184 ft 484 kts 92°
2026-02-17 00:54 80.13245 -86.64993 35185 ft 484 kts 93°
2026-02-17 00:55 80.12612 -86.06141 35181 ft 484 kts 94°
2026-02-17 00:56 80.12138 -85.67310 35183 ft 484 kts 94°
2026-02-17 00:56 80.11612 -85.28037 35184 ft 483 kts 95°
2026-02-17 00:57 80.11050 -84.89338 35188 ft 483 kts 95°
2026-02-17 00:57 80.10438 -84.50414 35194 ft 483 kts 95°
2026-02-17 00:58 80.09783 -84.11564 35191 ft 483 kts 96°
2026-02-17 00:58 80.09081 -83.72668 35189 ft 483 kts 96°
2026-02-17 00:59 80.07946 -83.14547 35194 ft 483 kts 97°
2026-02-17 00:59 80.07134 -82.75846 35186 ft 483 kts 97°
2026-02-17 01:00 80.06278 -82.37225 35186 ft 483 kts 97°
2026-02-17 01:00 80.05382 -81.98890 35188 ft 484 kts 98°
2026-02-17 01:01 80.04437 -81.60368 35182 ft 484 kts 98°
2026-02-17 01:01 80.03448 -81.21938 35163 ft 484 kts 99°
2026-02-17 01:02 80.02415 -80.83560 35150 ft 484 kts 99°
2026-02-17 01:02 80.01337 -80.45222 35131 ft 484 kts 100°
2026-02-17 01:03 80.00202 -79.87672 35115 ft 484 kts 85°
2026-02-17 01:04 80.00783 -79.48989 35098 ft 485 kts 86°
2026-02-17 01:04 80.01331 -79.10236 35076 ft 485 kts 86°
2026-02-17 01:05 80.01822 -78.71461 35065 ft 485 kts 87°
2026-02-17 01:05 80.02276 -78.32692 35064 ft 485 kts 87°
2026-02-17 01:06 80.02681 -77.93782 35064 ft 485 kts 88°
2026-02-17 01:06 80.03040 -77.55181 35060 ft 485 kts 88°
2026-02-17 01:07 80.03497 -76.96910 35066 ft 484 kts 89°
2026-02-17 01:07 80.03746 -76.58091 35072 ft 484 kts 89°
2026-02-17 01:08 80.03950 -76.19167 35092 ft 484 kts 89°
2026-02-17 01:08 80.04108 -75.80285 35104 ft 484 kts 90°
2026-02-17 01:09 80.04221 -75.41639 35115 ft 483 kts 90°
2026-02-17 01:09 80.04290 -75.02778 35131 ft 483 kts 90°
2026-02-17 01:10 80.04315 -74.63906 35135 ft 483 kts 91°
2026-02-17 01:10 80.04294 -74.25044 35149 ft 483 kts 91°
2026-02-17 01:11 80.04178 -73.66787 35169 ft 483 kts 92°
2026-02-17 01:12 80.04045 -73.27986 35186 ft 483 kts 92°
2026-02-17 01:12 80.03868 -72.89179 35202 ft 484 kts 93°
2026-02-17 01:13 80.03645 -72.50307 35214 ft 484 kts 93°
2026-02-17 01:13 80.03379 -72.11659 35221 ft 484 kts 94°
2026-02-17 01:14 80.03066 -71.72861 35219 ft 483 kts 94°
2026-02-17 01:14 80.02710 -71.34164 35229 ft 483 kts 95°
2026-02-17 01:15 80.02092 -70.76101 35239 ft 484 kts 95°
2026-02-17 01:15 80.01623 -70.37462 35243 ft 483 kts 95°
2026-02-17 01:16 80.01112 -69.98891 35243 ft 482 kts 96°
2026-02-17 01:16 80.00556 -69.60411 35252 ft 481 kts 96°
2026-02-17 01:17 80.00069 -69.21936 35265 ft 483 kts 88°
2026-02-17 01:17 80.00552 -68.83274 35272 ft 486 kts 87°
2026-02-17 01:18 80.01024 -68.44501 35274 ft 486 kts 88°
2026-02-17 01:18 80.01441 -68.05638 35276 ft 486 kts 88°
2026-02-17 01:19 80.01988 -67.47454 35270 ft 486 kts 89°
2026-02-17 01:20 80.02295 -67.08532 35270 ft 485 kts 89°
2026-02-17 01:20 80.02558 -66.69664 35264 ft 485 kts 90°
2026-02-17 01:21 80.02775 -66.30780 35261 ft 484 kts 90°
2026-02-17 01:21 80.02947 -65.91991 35256 ft 483 kts 90°
2026-02-17 01:22 80.03074 -65.53200 35254 ft 483 kts 91°
2026-02-17 01:22 80.03156 -65.14671 35262 ft 483 kts 91°
2026-02-17 01:23 80.03196 -64.56434 35254 ft 484 kts 92°
2026-02-17 01:23 80.03166 -64.17569 35253 ft 484 kts 92°
2026-02-17 01:24 80.03092 -63.78673 35259 ft 484 kts 93°
2026-02-17 01:24 80.02972 -63.39813 35248 ft 484 kts 93°
2026-02-17 01:25 80.02839 -63.07538 35258 ft 484 kts 94°
2026-02-17 01:25 80.02638 -62.68731 35253 ft 484 kts 94°
2026-02-17 01:26 80.02391 -62.29871 35242 ft 485 kts 94°
2026-02-17 01:26 80.02099 -61.91022 35225 ft 485 kts 95°
2026-02-17 01:27 80.01578 -61.32897 35215 ft 483 kts 95°
2026-02-17 01:28 80.01176 -60.94277 35199 ft 482 kts 96°
2026-02-17 01:28 80.00730 -60.55753 35186 ft 482 kts 96°
2026-02-17 01:29 80.00244 -60.17560 35190 ft 481 kts 96°
2026-02-17 01:29 79.98922 -59.80226 35188 ft 477 kts 109°
2026-02-17 01:30 79.96855 -59.43944 35184 ft 478 kts 110°
2026-02-17 01:30 79.94771 -59.07723 35173 ft 479 kts 110°
2026-02-17 01:31 79.91552 -58.53624 35160 ft 479 kts 111°
2026-02-17 01:31 79.89381 -58.18015 35151 ft 478 kts 111°
2026-02-17 01:32 79.87139 -57.82126 35142 ft 479 kts 112°
2026-02-17 01:32 79.84881 -57.46714 35137 ft 480 kts 112°
2026-02-17 01:33 79.82570 -57.11249 35130 ft 479 kts 112°
2026-02-17 01:33 79.80230 -56.76070 35125 ft 478 kts 113°
2026-02-17 01:34 79.77854 -56.41057 35122 ft 477 kts 113°
2026-02-17 01:34 79.75446 -56.06301 35114 ft 476 kts 114°
2026-02-17 01:35 79.71780 -55.54671 35113 ft 474 kts 114°
2026-02-17 01:36 79.69303 -55.20616 35113 ft 472 kts 115°
2026-02-17 01:36 79.66813 -54.87039 35112 ft 472 kts 115°
2026-02-17 01:37 79.64280 -54.53489 35113 ft 472 kts 115°
2026-02-17 01:37 79.61700 -54.19948 35115 ft 473 kts 115°
2026-02-17 01:38 79.59075 -53.86453 35114 ft 474 kts 116°
2026-02-17 01:38 79.56407 -53.53001 35118 ft 476 kts 116°
2026-02-17 01:39 79.52323 -53.02964 35115 ft 479 kts 116°
2026-02-17 01:39 79.49549 -52.69690 35122 ft 480 kts 116°
2026-02-17 01:40 79.46733 -52.36555 35123 ft 481 kts 116°
2026-02-17 01:40 79.43877 -52.03491 35124 ft 481 kts 116°
2026-02-17 01:41 79.40983 -51.70586 35134 ft 482 kts 117°
2026-02-17 01:41 79.38071 -51.38007 35126 ft 483 kts 117°
2026-02-17 01:42 79.35101 -51.05366 35128 ft 484 kts 117°
2026-02-17 01:42 79.32094 -50.72850 35131 ft 484 kts 118°
2026-02-17 01:43 79.27528 -50.24490 35132 ft 482 kts 118°
2026-02-17 01:44 79.24452 -49.92598 35130 ft 481 kts 119°
2026-02-17 01:44 79.21349 -49.60899 35135 ft 480 kts 120°
2026-02-17 01:45 79.18215 -49.29444 35136 ft 480 kts 120°
2026-02-17 01:45 79.13471 -48.82698 35138 ft 479 kts 120°
2026-02-17 01:46 79.10274 -48.51814 35136 ft 478 kts 121°
2026-02-17 01:46 79.07053 -48.21153 35137 ft 478 kts 121°
2026-02-17 01:47 79.02166 -47.75543 35137 ft 477 kts 121°
2026-02-17 01:48 78.98892 -47.45558 35144 ft 476 kts 121°
2026-02-17 01:48 78.95571 -47.15586 35149 ft 476 kts 122°
2026-02-17 01:49 78.92225 -46.85819 35146 ft 476 kts 122°
2026-02-17 01:49 78.88849 -46.56227 35140 ft 476 kts 122°
2026-02-17 01:50 78.85441 -46.26801 35145 ft 476 kts 123°
2026-02-17 01:50 78.82036 -45.97791 35144 ft 476 kts 123°
2026-02-17 01:51 78.76830 -45.54249 35143 ft 476 kts 123°
2026-02-17 01:51 78.73326 -45.25438 35145 ft 476 kts 124°
2026-02-17 01:52 78.69794 -44.96808 35138 ft 476 kts 124°
2026-02-17 01:52 78.66230 -44.68335 35146 ft 475 kts 124°
2026-02-17 01:53 78.62654 -44.40124 35140 ft 475 kts 124°
2026-02-17 01:53 78.59070 -44.12267 35144 ft 475 kts 125°
2026-02-17 01:54 78.55441 -43.84418 35144 ft 475 kts 125°
2026-02-17 01:54 78.51787 -43.56749 35145 ft 475 kts 125°
2026-02-17 01:55 78.46252 -43.15551 35148 ft 475 kts 126°
2026-02-17 01:56 78.42533 -42.88321 35149 ft 475 kts 126°
2026-02-17 01:56 78.38788 -42.61250 35151 ft 475 kts 126°
2026-02-17 01:57 78.35014 -42.34332 35157 ft 475 kts 127°
2026-02-17 01:57 78.31248 -42.07811 35157 ft 475 kts 127°
2026-02-17 01:58 78.27427 -41.81254 35162 ft 475 kts 127°
2026-02-17 01:58 78.23583 -41.54868 35166 ft 475 kts 127°
2026-02-17 01:59 78.17769 -41.15594 35173 ft 475 kts 128°
2026-02-17 01:59 78.13857 -40.89581 35178 ft 475 kts 128°
2026-02-17 02:00 78.09926 -40.63766 35179 ft 476 kts 128°
2026-02-17 02:00 78.05969 -40.38099 35180 ft 476 kts 128°
2026-02-17 02:01 78.01988 -40.12593 35187 ft 476 kts 128°
2026-02-17 02:01 77.98018 -39.87369 35183 ft 476 kts 128°
2026-02-17 02:02 77.94055 -39.61882 35188 ft 476 kts 128°
2026-02-17 02:02 77.90038 -39.36696 35194 ft 477 kts 128°
2026-02-17 02:03 77.83992 -38.99147 35206 ft 477 kts 129°
2026-02-17 02:04 77.79923 -38.74304 35199 ft 477 kts 129°
2026-02-17 02:04 77.75833 -38.49598 35207 ft 478 kts 129°
2026-02-17 02:05 77.71706 -38.24990 35211 ft 478 kts 129°
2026-02-17 02:05 77.67592 -38.00727 35217 ft 478 kts 130°
2026-02-17 02:06 77.63425 -37.76462 35223 ft 478 kts 130°
2026-02-17 02:06 77.59244 -37.52384 35225 ft 478 kts 130°
2026-02-17 02:07 77.52939 -37.16603 35226 ft 477 kts 130°
2026-02-17 02:07 77.48718 -36.93000 35228 ft 476 kts 131°
2026-02-17 02:08 77.44482 -36.69573 35233 ft 476 kts 131°
2026-02-17 02:08 77.40225 -36.46312 35236 ft 475 kts 131°
2026-02-17 02:09 77.35952 -36.23208 35238 ft 475 kts 131°
2026-02-17 02:09 77.31666 -36.00308 35238 ft 475 kts 131°
2026-02-17 02:10 77.27381 -35.77663 35242 ft 475 kts 131°
2026-02-17 02:10 77.23055 -35.55051 35246 ft 475 kts 132°
2026-02-17 02:11 77.16520 -35.21367 35249 ft 475 kts 132°
2026-02-17 02:12 77.12143 -34.99115 35252 ft 475 kts 133°
2026-02-17 02:12 77.08497 -34.80766 35253 ft 475 kts 133°
2026-02-17 02:13 77.01879 -34.47870 35258 ft 475 kts 133°
2026-02-17 02:13 76.97451 -34.26161 35262 ft 475 kts 133°
2026-02-17 02:14 76.92996 -34.04553 35266 ft 475 kts 133°
2026-02-17 02:14 76.88529 -33.83113 35274 ft 475 kts 134°
2026-02-17 02:15 76.81812 -33.51306 35284 ft 474 kts 134°
2026-02-17 02:16 76.77294 -33.30191 35290 ft 474 kts 134°
2026-02-17 02:16 76.72765 -33.09243 35300 ft 474 kts 134°
2026-02-17 02:17 76.68230 -32.88487 35305 ft 473 kts 134°
2026-02-17 02:17 76.63678 -32.67871 35306 ft 473 kts 135°
2026-02-17 02:18 76.59138 -32.47515 35311 ft 473 kts 135°
2026-02-17 02:18 76.54546 -32.27140 35316 ft 473 kts 135°
2026-02-17 02:19 76.47639 -31.96881 35321 ft 474 kts 135°
2026-02-17 02:19 76.43015 -31.76884 35321 ft 473 kts 135°
2026-02-17 02:20 76.38399 -31.57114 35324 ft 474 kts 135°
2026-02-17 02:20 76.33738 -31.37353 35324 ft 474 kts 136°
2026-02-17 02:21 76.29062 -31.17731 35320 ft 473 kts 136°
2026-02-17 02:21 76.24370 -30.98232 35315 ft 474 kts 136°
2026-02-17 02:22 76.19701 -30.79022 35313 ft 474 kts 136°
2026-02-17 02:22 76.14969 -30.59749 35304 ft 473 kts 136°
2026-02-17 02:23 76.07872 -30.31182 35299 ft 473 kts 136°
2026-02-17 02:24 76.03113 -30.12269 35297 ft 473 kts 136°
2026-02-17 02:24 75.98453 -29.93140 35307 ft 471 kts 133°
2026-02-17 02:25 75.93910 -29.73595 35302 ft 473 kts 134°
2026-02-17 02:25 75.89356 -29.54000 35302 ft 475 kts 134°
2026-02-17 02:26 75.84725 -29.34332 35327 ft 490 kts 134°
2026-02-17 02:26 75.82327 -29.24244 35431 ft 495 kts 134°
2026-02-17 02:26 75.79931 -29.14167 35728 ft 495 kts 134°
2026-02-17 02:26 75.77527 -29.04115 36000 ft 496 kts 134°
2026-02-17 02:27 75.72686 -28.84077 36528 ft 498 kts 134°
2026-02-17 02:27 75.70256 -28.74080 36802 ft 498 kts 134°
2026-02-17 02:27 75.67824 -28.64122 37091 ft 498 kts 134°
2026-02-17 02:28 75.65384 -28.54189 37366 ft 499 kts 135°
2026-02-17 02:28 75.62945 -28.44313 37621 ft 500 kts 135°
2026-02-17 02:28 75.60477 -28.34367 37896 ft 500 kts 135°
2026-02-17 02:28 75.58013 -28.24485 38189 ft 500 kts 135°
2026-02-17 02:29 75.55586 -28.14800 38450 ft 501 kts 135°
2026-02-17 02:29 75.53078 -28.04842 38767 ft 500 kts 135°
2026-02-17 02:29 75.50591 -27.95015 38944 ft 502 kts 135°
2026-02-17 02:29 75.48104 -27.85241 39176 ft 502 kts 135°
2026-02-17 02:30 75.43100 -27.65718 39260 ft 504 kts 135°
2026-02-17 02:31 75.35633 -27.36942 39266 ft 499 kts 135°
2026-02-17 02:31 75.30643 -27.17944 39264 ft 498 kts 136°
2026-02-17 02:32 75.25636 -26.99068 39270 ft 499 kts 136°
2026-02-17 02:32 75.20605 -26.80285 39266 ft 498 kts 136°
2026-02-17 02:33 75.15601 -26.61781 39270 ft 498 kts 136°
2026-02-17 02:33 75.10545 -26.43264 39272 ft 499 kts 136°
2026-02-17 02:34 75.05475 -26.24870 39274 ft 498 kts 136°
2026-02-17 02:34 75.00399 -26.06630 39279 ft 498 kts 136°
2026-02-17 02:35 74.92753 -25.79476 39286 ft 498 kts 137°
2026-02-17 02:35 74.87640 -25.61533 39293 ft 498 kts 137°
2026-02-17 02:36 74.82518 -25.43723 39304 ft 498 kts 137°
2026-02-17 02:36 74.77388 -25.26047 39315 ft 497 kts 137°
2026-02-17 02:37 74.72238 -25.08471 39325 ft 498 kts 137°
2026-02-17 02:37 74.67096 -24.91083 39335 ft 498 kts 137°
2026-02-17 02:38 74.61923 -24.73750 39350 ft 498 kts 138°
2026-02-17 02:39 74.54125 -24.47914 39356 ft 498 kts 138°
2026-02-17 02:39 74.48899 -24.30802 39364 ft 498 kts 138°
2026-02-17 02:40 74.43670 -24.13826 39358 ft 498 kts 138°
2026-02-17 02:40 74.38426 -23.96958 39346 ft 498 kts 139°
2026-02-17 02:41 74.33180 -23.80236 39345 ft 496 kts 139°
2026-02-17 02:42 74.23264 -23.49032 39335 ft 494 kts 139°
2026-02-17 02:42 74.18006 -23.32695 39338 ft 494 kts 139°
2026-02-17 02:43 74.10118 -23.08454 39328 ft 494 kts 139°
2026-02-17 02:43 74.03979 -22.89804 39321 ft 495 kts 140°
2026-02-17 02:44 73.99538 -22.76432 39317 ft 496 kts 140°
2026-02-17 02:44 73.94218 -22.60537 39314 ft 496 kts 140°
2026-02-17 02:45 73.88882 -22.44734 39308 ft 496 kts 140°
2026-02-17 02:45 73.83530 -22.29020 39303 ft 496 kts 140°
2026-02-17 02:46 73.78170 -22.13414 39295 ft 495 kts 140°
2026-02-17 02:47 73.70173 -21.90379 39288 ft 494 kts 141°
2026-02-17 02:47 73.64801 -21.75068 39279 ft 495 kts 141°
2026-02-17 02:48 73.59418 -21.59855 39270 ft 494 kts 141°
2026-02-17 02:48 73.54033 -21.44762 39260 ft 494 kts 141°
2026-02-17 02:49 73.48629 -21.29745 39262 ft 494 kts 141°
2026-02-17 02:49 73.43224 -21.14846 39262 ft 494 kts 141°
2026-02-17 02:50 73.37811 -21.00050 39258 ft 493 kts 141°
2026-02-17 02:50 73.32423 -20.85445 39255 ft 493 kts 142°
2026-02-17 02:51 73.24258 -20.63535 39252 ft 494 kts 142°
2026-02-17 02:51 73.18801 -20.49040 39247 ft 494 kts 142°
2026-02-17 02:52 73.10634 -20.27569 39247 ft 493 kts 142°
2026-02-17 02:53 73.05163 -20.13329 39241 ft 494 kts 142°
2026-02-17 02:53 72.99675 -19.99112 39241 ft 494 kts 140°
2026-02-17 02:54 72.94295 -19.84492 39234 ft 495 kts 142°
2026-02-17 02:54 72.88867 -19.69973 39231 ft 496 kts 141°
2026-02-17 02:55 72.80719 -19.48270 39223 ft 496 kts 141°
2026-02-17 02:55 72.75282 -19.33909 39223 ft 497 kts 141°
2026-02-17 02:56 72.69819 -19.19639 39213 ft 497 kts 142°
2026-02-17 02:56 72.64341 -19.05428 39206 ft 498 kts 142°
2026-02-17 02:57 72.58846 -18.91291 39197 ft 498 kts 142°
2026-02-17 02:57 72.53346 -18.77251 39189 ft 498 kts 142°
2026-02-17 02:58 72.47836 -18.63295 39181 ft 498 kts 142°
2026-02-17 02:59 72.39584 -18.42600 39168 ft 498 kts 142°
2026-02-17 02:59 72.34050 -18.28856 39162 ft 498 kts 143°
2026-02-17 03:00 72.28495 -18.15164 39158 ft 499 kts 143°
2026-02-17 03:00 72.22930 -18.01558 39147 ft 499 kts 143°
2026-02-17 03:01 72.17359 -17.88040 39133 ft 498 kts 143°
2026-02-17 03:01 72.11779 -17.74604 39131 ft 499 kts 143°
2026-02-17 03:02 72.06185 -17.61238 39121 ft 499 kts 143°
2026-02-17 03:02 72.00585 -17.47960 39119 ft 499 kts 143°
2026-02-17 03:03 71.92152 -17.28154 39104 ft 500 kts 144°
2026-02-17 03:03 71.86525 -17.15063 39097 ft 499 kts 144°
2026-02-17 03:04 71.80881 -17.02032 39090 ft 500 kts 144°
2026-02-17 03:04 71.75223 -16.89066 39079 ft 500 kts 144°
2026-02-17 03:05 71.69598 -16.76272 39074 ft 500 kts 144°
2026-02-17 03:05 71.63922 -16.63459 39068 ft 500 kts 144°
2026-02-17 03:06 71.58244 -16.50737 39066 ft 500 kts 144°
2026-02-17 03:07 71.49705 -16.31780 39056 ft 500 kts 145°
2026-02-17 03:07 71.44002 -16.19238 39051 ft 500 kts 145°
2026-02-17 03:08 71.38324 -16.06840 39042 ft 501 kts 145°
2026-02-17 03:08 71.32602 -15.94437 39040 ft 500 kts 145°
2026-02-17 03:09 71.26872 -15.82109 39031 ft 501 kts 145°
2026-02-17 03:09 71.21124 -15.69832 39022 ft 501 kts 146°
2026-02-17 03:10 71.15377 -15.57645 39016 ft 500 kts 146°
2026-02-17 03:10 71.09622 -15.45530 39015 ft 500 kts 146°
2026-02-17 03:11 71.00961 -15.27463 39005 ft 501 kts 146°
2026-02-17 03:11 70.95178 -15.15507 39002 ft 502 kts 146°
2026-02-17 03:12 70.89378 -15.03601 38996 ft 502 kts 146°
2026-02-17 03:12 70.83567 -14.91757 38995 ft 502 kts 146°
2026-02-17 03:13 70.77751 -14.79989 38992 ft 502 kts 147°
2026-02-17 03:13 70.71963 -14.68359 38984 ft 502 kts 147°
2026-02-17 03:14 70.66134 -14.56730 38981 ft 502 kts 147°
2026-02-17 03:15 70.57368 -14.39395 38969 ft 502 kts 147°
2026-02-17 03:15 70.51522 -14.27933 38961 ft 502 kts 147°
2026-02-17 03:16 70.45659 -14.16522 38964 ft 503 kts 147°
2026-02-17 03:16 70.36892 -13.99603 38953 ft 503 kts 147°
2026-02-17 03:17 70.31014 -13.88358 38945 ft 503 kts 148°
2026-02-17 03:17 70.25116 -13.77152 38946 ft 503 kts 148°
2026-02-17 03:18 70.19207 -13.66002 38939 ft 504 kts 148°
2026-02-17 03:19 70.10338 -13.49413 38932 ft 503 kts 148°
2026-02-17 03:19 70.04417 -13.38430 38928 ft 503 kts 148°
2026-02-17 03:20 69.98526 -13.27578 38921 ft 504 kts 148°
2026-02-17 03:20 69.92594 -13.16726 38916 ft 504 kts 148°
2026-02-17 03:21 69.86644 -13.05913 38912 ft 504 kts 148°
2026-02-17 03:21 69.80690 -12.95167 38910 ft 504 kts 149°
2026-02-17 03:22 69.74727 -12.84476 38899 ft 505 kts 149°
2026-02-17 03:22 69.68749 -12.73829 38896 ft 505 kts 149°
2026-02-17 03:23 69.59755 -12.57946 38891 ft 505 kts 149°
2026-02-17 03:23 69.53755 -12.47440 38886 ft 506 kts 149°
2026-02-17 03:24 69.47787 -12.37056 38879 ft 505 kts 149°
2026-02-17 03:24 69.41776 -12.26669 38875 ft 505 kts 149°
2026-02-17 03:25 69.35765 -12.16348 38868 ft 505 kts 150°
2026-02-17 03:25 69.29741 -12.06077 38866 ft 505 kts 150°
2026-02-17 03:26 69.23703 -11.95843 38863 ft 506 kts 150°
2026-02-17 03:27 69.14660 -11.80646 38858 ft 505 kts 150°
2026-02-17 03:27 69.08611 -11.70566 38856 ft 505 kts 150°
2026-02-17 03:28 69.02559 -11.60542 38852 ft 504 kts 150°
2026-02-17 03:28 68.97540 -11.52276 38848 ft 505 kts 150°
2026-02-17 03:29 68.91481 -11.42362 38842 ft 505 kts 150°
2026-02-17 03:29 68.85412 -11.32493 38848 ft 505 kts 150°
2026-02-17 03:30 68.79355 -11.22709 38838 ft 504 kts 150°
2026-02-17 03:30 68.73287 -11.12966 38839 ft 505 kts 151°
2026-02-17 03:31 68.64199 -10.98489 38831 ft 506 kts 151°
2026-02-17 03:31 68.58053 -10.88778 38829 ft 507 kts 151°
2026-02-17 03:32 68.51976 -10.79235 38829 ft 507 kts 151°
2026-02-17 03:32 68.45846 -10.69668 38828 ft 508 kts 151°
2026-02-17 03:33 68.39713 -10.60162 38825 ft 507 kts 152°
2026-02-17 03:33 68.33585 -10.50717 38822 ft 507 kts 152°
2026-02-17 03:34 68.27449 -10.41324 38819 ft 508 kts 152°
2026-02-17 03:35 68.18224 -10.27306 38813 ft 508 kts 152°
2026-02-17 03:35 68.12052 -10.18004 38814 ft 508 kts 152°
2026-02-17 03:36 68.05878 -10.08752 38806 ft 508 kts 152°
2026-02-17 03:36 67.99703 -9.99600 38807 ft 506 kts 156°
2026-02-17 03:37 67.93398 -9.91272 38817 ft 507 kts 154°
2026-02-17 03:37 67.87122 -9.82945 38815 ft 506 kts 155°
2026-02-17 03:38 67.80805 -9.74704 38810 ft 507 kts 155°
2026-02-17 03:38 67.74470 -9.66432 38819 ft 507 kts 155°
2026-02-17 03:39 67.64968 -9.54157 38810 ft 507 kts 155°
2026-02-17 03:39 67.58619 -9.46015 38809 ft 508 kts 156°
2026-02-17 03:40 67.52265 -9.37909 38805 ft 508 kts 156°
2026-02-17 03:40 67.45951 -9.29911 38803 ft 508 kts 156°
2026-02-17 03:41 67.39586 -9.21886 38804 ft 508 kts 156°
2026-02-17 03:41 67.33213 -9.13906 38812 ft 509 kts 156°
2026-02-17 03:42 67.26817 -9.05941 38871 ft 513 kts 156°
2026-02-17 03:42 67.23592 -9.01942 39103 ft 513 kts 156°
2026-02-17 03:43 67.17144 -8.93988 39592 ft 513 kts 156°
2026-02-17 03:43 67.13923 -8.90031 39802 ft 513 kts 156°
2026-02-17 03:43 67.10700 -8.86083 40037 ft 513 kts 156°
2026-02-17 03:43 67.07474 -8.82141 40256 ft 513 kts 156°
2026-02-17 03:44 67.04251 -8.78218 40468 ft 513 kts 156°
2026-02-17 03:44 67.01063 -8.74350 40712 ft 512 kts 156°
2026-02-17 03:44 66.97837 -8.70443 40799 ft 515 kts 156°
2026-02-17 03:45 66.91375 -8.62653 40805 ft 511 kts 157°
2026-02-17 03:45 66.84961 -8.54972 40811 ft 508 kts 157°
2026-02-17 03:46 66.78559 -8.47342 40808 ft 508 kts 157°
2026-02-17 03:46 66.72148 -8.39753 40816 ft 508 kts 157°
2026-02-17 03:47 66.62520 -8.28432 40812 ft 510 kts 157°
2026-02-17 03:47 66.56123 -8.20962 40814 ft 510 kts 157°
2026-02-17 03:48 66.49687 -8.13494 40812 ft 509 kts 157°
2026-02-17 03:49 66.40026 -8.02359 40814 ft 509 kts 158°
2026-02-17 03:49 66.33587 -7.94991 40813 ft 509 kts 158°
2026-02-17 03:50 66.27148 -7.87665 40831 ft 509 kts 158°
2026-02-17 03:50 66.20700 -7.80369 40834 ft 509 kts 158°
2026-02-17 03:51 66.11008 -7.69481 40829 ft 509 kts 158°
2026-02-17 03:51 66.04556 -7.62281 40828 ft 509 kts 158°
2026-02-17 03:52 65.98102 -7.55123 40827 ft 509 kts 158°
2026-02-17 03:52 65.91644 -7.47999 40828 ft 509 kts 158°
2026-02-17 03:53 65.85216 -7.40946 40830 ft 509 kts 158°
2026-02-17 03:53 65.78741 -7.33880 40831 ft 508 kts 158°
2026-02-17 03:54 65.72281 -7.26872 40834 ft 509 kts 158°
2026-02-17 03:55 65.62576 -7.16412 40837 ft 509 kts 158°
2026-02-17 03:55 65.56104 -7.09486 40836 ft 508 kts 158°
2026-02-17 03:56 65.49637 -7.02602 40837 ft 508 kts 159°
2026-02-17 03:56 65.43193 -6.95779 40838 ft 508 kts 159°
2026-02-17 03:57 65.36717 -6.88959 40840 ft 508 kts 159°
2026-02-17 03:57 65.30231 -6.82166 40840 ft 509 kts 159°
2026-02-17 03:58 65.23742 -6.75407 40841 ft 509 kts 159°
2026-02-17 03:58 65.17254 -6.68684 40841 ft 509 kts 159°
2026-02-17 03:59 65.07507 -6.58653 40849 ft 508 kts 159°
2026-02-17 03:59 65.01006 -6.52006 40850 ft 508 kts 159°
2026-02-17 04:00 64.94548 -6.45439 40848 ft 508 kts 159°
2026-02-17 04:00 64.88048 -6.38863 40848 ft 508 kts 159°
2026-02-17 04:01 64.81535 -6.32309 40854 ft 508 kts 159°
2026-02-17 04:01 64.75018 -6.25786 40853 ft 508 kts 159°
2026-02-17 04:02 64.68513 -6.19310 40853 ft 508 kts 159°
2026-02-17 04:03 64.58750 -6.09651 40853 ft 508 kts 159°
2026-02-17 04:03 64.52275 -6.03287 40854 ft 508 kts 159°
2026-02-17 04:04 64.45762 -5.96921 40853 ft 508 kts 159°
2026-02-17 04:04 64.39242 -5.90577 40857 ft 508 kts 160°
2026-02-17 04:05 64.32714 -5.84262 40862 ft 509 kts 160°
2026-02-17 04:05 64.26183 -5.77973 40868 ft 509 kts 160°
2026-02-17 04:06 64.19650 -5.71717 40876 ft 508 kts 160°
2026-02-17 04:06 64.13115 -5.65490 40869 ft 508 kts 160°
2026-02-17 04:07 64.03313 -5.56210 40865 ft 508 kts 160°
2026-02-17 04:07 63.96785 -5.50068 40866 ft 508 kts 160°
2026-02-17 04:08 63.90243 -5.43944 40865 ft 507 kts 160°
2026-02-17 04:08 63.83709 -5.37858 40859 ft 507 kts 160°
2026-02-17 04:09 63.77217 -5.31843 40863 ft 507 kts 160°
2026-02-17 04:09 63.70676 -5.25812 40865 ft 508 kts 160°
2026-02-17 04:10 63.64128 -5.19805 40864 ft 508 kts 160°
2026-02-17 04:11 63.54295 -5.10840 40863 ft 508 kts 160°
2026-02-17 04:11 63.44467 -5.01946 40864 ft 508 kts 160°
2026-02-17 04:12 63.37907 -4.96046 40865 ft 507 kts 160°
2026-02-17 04:12 63.31394 -4.90217 40869 ft 508 kts 160°
2026-02-17 04:13 63.24822 -4.84365 40868 ft 509 kts 161°
2026-02-17 04:13 63.18248 -4.78538 40870 ft 509 kts 161°
2026-02-17 04:14 63.11674 -4.72741 40879 ft 508 kts 161°
2026-02-17 04:15 63.01833 -4.64115 40878 ft 507 kts 161°
2026-02-17 04:15 62.95259 -4.58388 40873 ft 508 kts 161°
2026-02-17 04:16 62.88694 -4.52695 40872 ft 507 kts 161°
2026-02-17 04:16 62.83237 -4.47985 40872 ft 507 kts 161°
2026-02-17 04:17 62.76666 -4.42338 40874 ft 506 kts 161°
2026-02-17 04:17 62.70097 -4.36720 40872 ft 507 kts 161°
2026-02-17 04:18 62.63533 -4.31133 40873 ft 506 kts 161°
2026-02-17 04:18 62.56967 -4.25571 40872 ft 506 kts 161°
2026-02-17 04:19 62.47144 -4.17299 40875 ft 508 kts 161°
2026-02-17 04:19 62.40552 -4.11780 40876 ft 508 kts 161°
2026-02-17 04:20 62.33957 -4.06284 40877 ft 508 kts 161°
2026-02-17 04:20 62.27365 -4.00818 40877 ft 507 kts 161°
2026-02-17 04:21 62.20760 -3.95366 40880 ft 507 kts 162°
2026-02-17 04:21 62.14208 -3.89984 40875 ft 508 kts 162°
2026-02-17 04:22 62.07608 -3.84586 40878 ft 507 kts 162°
2026-02-17 04:23 61.97716 -3.76545 40878 ft 508 kts 162°
2026-02-17 04:23 61.91101 -3.71198 40877 ft 508 kts 162°
2026-02-17 04:24 61.84501 -3.65888 40876 ft 507 kts 162°
2026-02-17 04:24 61.77902 -3.60603 40879 ft 507 kts 162°
2026-02-17 04:25 61.71302 -3.55342 40874 ft 507 kts 162°
2026-02-17 04:25 61.64710 -3.50111 40883 ft 507 kts 162°
2026-02-17 04:26 61.58104 -3.44893 40880 ft 507 kts 162°
2026-02-17 04:26 61.51498 -3.39699 40880 ft 506 kts 162°
2026-02-17 04:27 61.41639 -3.31991 40873 ft 506 kts 162°
2026-02-17 04:27 61.35033 -3.26854 40878 ft 506 kts 162°
2026-02-17 04:28 61.28433 -3.21747 40878 ft 506 kts 162°
2026-02-17 04:28 61.21840 -3.16666 40886 ft 505 kts 162°
2026-02-17 04:29 61.15243 -3.11606 40883 ft 505 kts 162°
2026-02-17 04:29 61.08642 -3.06565 40883 ft 505 kts 163°
2026-02-17 04:30 61.02049 -3.01553 40875 ft 505 kts 163°
2026-02-17 04:30 60.98833 -2.98623 40908 ft 508 kts 152°
2026-02-17 04:31 60.92680 -2.91354 40885 ft 511 kts 153°
2026-02-17 04:31 60.86514 -2.84093 40879 ft 511 kts 153°
2026-02-17 04:32 60.80377 -2.76915 40881 ft 511 kts 153°
2026-02-17 04:32 60.74195 -2.69704 40876 ft 511 kts 153°
2026-02-17 04:33 60.68003 -2.62523 40871 ft 511 kts 153°
2026-02-17 04:33 60.61814 -2.55371 40870 ft 511 kts 153°
2026-02-17 04:34 60.55628 -2.48258 40864 ft 511 kts 153°
2026-02-17 04:34 60.49442 -2.41175 40857 ft 510 kts 153°
2026-02-17 04:35 60.40181 -2.30630 40847 ft 509 kts 153°
2026-02-17 04:35 60.34002 -2.23633 40843 ft 509 kts 153°
2026-02-17 04:36 60.27825 -2.16668 40840 ft 508 kts 153°
2026-02-17 04:36 60.21650 -2.09737 40838 ft 508 kts 153°
2026-02-17 04:37 60.15504 -2.02867 40833 ft 508 kts 154°
2026-02-17 04:37 60.09317 -1.95982 40834 ft 508 kts 154°
2026-02-17 04:38 60.03132 -1.89128 40824 ft 508 kts 154°
2026-02-17 04:39 59.93857 -1.78906 40823 ft 508 kts 154°
2026-02-17 04:39 59.87669 -1.72122 40824 ft 508 kts 154°
2026-02-17 04:40 59.81476 -1.65363 40820 ft 507 kts 154°
2026-02-17 04:40 59.75280 -1.58628 40818 ft 508 kts 154°
2026-02-17 04:41 59.69082 -1.51921 40818 ft 507 kts 154°
2026-02-17 04:41 59.62875 -1.45232 40817 ft 508 kts 154°
2026-02-17 04:42 59.56657 -1.38558 40806 ft 507 kts 154°
2026-02-17 04:42 59.50652 -1.31192 40815 ft 510 kts 149°
2026-02-17 04:43 59.41743 -1.19697 40804 ft 510 kts 149°
2026-02-17 04:43 59.35840 -1.12120 40796 ft 509 kts 149°
2026-02-17 04:44 59.29901 -1.04536 40787 ft 510 kts 149°
2026-02-17 04:44 59.23954 -0.96972 40784 ft 510 kts 150°
2026-02-17 04:45 59.18001 -0.89431 40774 ft 510 kts 150°
2026-02-17 04:45 59.12048 -0.81925 40772 ft 509 kts 150°
2026-02-17 04:46 59.06090 -0.74442 40764 ft 510 kts 150°
2026-02-17 04:47 58.97130 -0.63248 40754 ft 510 kts 150°
2026-02-17 04:47 58.91195 -0.55873 40757 ft 509 kts 150°
2026-02-17 04:48 58.85225 -0.48484 40751 ft 509 kts 150°
2026-02-17 04:48 58.79250 -0.41119 40741 ft 509 kts 150°
2026-02-17 04:49 58.73269 -0.33778 40739 ft 509 kts 150°
2026-02-17 04:49 58.67289 -0.26469 40734 ft 509 kts 150°
2026-02-17 04:50 58.61305 -0.19183 40725 ft 508 kts 150°
2026-02-17 04:50 58.55324 -0.11933 40721 ft 509 kts 150°
2026-02-17 04:51 58.46350 -0.01108 40710 ft 508 kts 151°
2026-02-17 04:51 58.40398 0.06034 40705 ft 509 kts 151°
2026-02-17 04:52 58.34408 0.13193 40699 ft 508 kts 151°
2026-02-17 04:52 58.28416 0.20326 40693 ft 508 kts 151°
2026-02-17 04:53 58.22407 0.27450 40689 ft 509 kts 151°
2026-02-17 04:53 58.16391 0.34553 40683 ft 509 kts 151°
2026-02-17 04:54 58.10382 0.41620 40675 ft 508 kts 151°
2026-02-17 04:55 58.01368 0.52168 40662 ft 508 kts 151°
2026-02-17 04:55 57.95344 0.59164 40669 ft 507 kts 154°
2026-02-17 04:56 57.89045 0.65025 40666 ft 506 kts 158°
2026-02-17 04:56 57.82699 0.70808 40661 ft 506 kts 157°
2026-02-17 04:57 57.76408 0.76523 40642 ft 505 kts 158°
2026-02-17 04:57 57.70079 0.82243 40645 ft 504 kts 158°
2026-02-17 04:58 57.63770 0.87928 40624 ft 504 kts 158°
2026-02-17 04:58 57.57427 0.93617 40623 ft 505 kts 158°
2026-02-17 04:59 57.47927 1.02101 40611 ft 504 kts 158°
2026-02-17 04:59 57.41605 1.07718 40607 ft 503 kts 158°
2026-02-17 05:00 57.35321 1.13281 40605 ft 504 kts 158°
2026-02-17 05:00 57.28988 1.18866 40597 ft 504 kts 158°
2026-02-17 05:01 57.22654 1.24429 40587 ft 504 kts 158°
2026-02-17 05:01 57.16323 1.29970 40583 ft 503 kts 158°
2026-02-17 05:02 57.09989 1.35491 40573 ft 505 kts 158°
2026-02-17 05:03 57.00450 1.43769 40567 ft 505 kts 158°
2026-02-17 05:03 56.95173 1.48326 40563 ft 505 kts 158°
2026-02-17 05:04 56.88826 1.53789 40565 ft 504 kts 158°
2026-02-17 05:04 56.81445 1.60117 40549 ft 504 kts 158°
2026-02-17 05:05 56.76134 1.64653 40564 ft 503 kts 159°
2026-02-17 05:05 56.69788 1.70053 40557 ft 504 kts 159°
2026-02-17 05:06 56.63436 1.75440 40549 ft 504 kts 159°
2026-02-17 05:06 56.57117 1.80778 40545 ft 504 kts 159°
2026-02-17 05:07 56.47559 1.88814 40537 ft 505 kts 159°
2026-02-17 05:07 56.41175 1.94157 40536 ft 506 kts 159°
2026-02-17 05:08 56.34764 1.99503 40533 ft 508 kts 159°
2026-02-17 05:08 56.28328 2.04850 40451 ft 509 kts 159°
2026-02-17 05:09 56.21883 2.10181 40531 ft 519 kts 159°
2026-02-17 05:09 56.15205 2.15689 40541 ft 528 kts 159°
2026-02-17 05:10 56.08561 2.21149 40554 ft 529 kts 159°
2026-02-17 05:11 55.98528 2.29350 40553 ft 528 kts 159°
2026-02-17 05:11 55.91833 2.34797 40549 ft 528 kts 159°
2026-02-17 05:12 55.85252 2.40621 40549 ft 530 kts 155°
2026-02-17 05:12 55.78741 2.46778 40557 ft 529 kts 155°
2026-02-17 05:13 55.72242 2.52935 40554 ft 530 kts 155°
2026-02-17 05:13 55.65733 2.59064 40551 ft 529 kts 155°
2026-02-17 05:14 55.59239 2.65160 40552 ft 528 kts 155°
2026-02-17 05:14 55.52748 2.71230 40556 ft 527 kts 155°
2026-02-17 05:15 55.42992 2.80310 40557 ft 529 kts 155°
2026-02-17 05:15 55.36480 2.86341 40563 ft 529 kts 155°
2026-02-17 05:16 55.30011 2.92312 40568 ft 529 kts 155°
2026-02-17 05:16 55.23494 2.98303 40572 ft 529 kts 155°
2026-02-17 05:17 55.16964 3.04284 40575 ft 529 kts 155°
2026-02-17 05:17 55.10438 3.10239 40576 ft 530 kts 155°
2026-02-17 05:18 55.03894 3.16189 40579 ft 531 kts 155°
2026-02-17 05:19 54.93948 3.24611 40612 ft 527 kts 163°
2026-02-17 05:19 54.87055 3.29073 40598 ft 529 kts 163°
2026-02-17 05:20 54.80155 3.33556 40601 ft 530 kts 163°
2026-02-17 05:20 54.73251 3.38009 40602 ft 530 kts 163°
2026-02-17 05:21 54.66341 3.42458 40601 ft 530 kts 163°
2026-02-17 05:21 54.55957 3.49107 40602 ft 531 kts 163°
2026-02-17 05:22 54.49068 3.53501 40618 ft 531 kts 163°
2026-02-17 05:23 54.38670 3.60101 40615 ft 531 kts 163°
2026-02-17 05:23 54.31673 3.63942 40659 ft 523 kts 176°
2026-02-17 05:23 54.28074 3.64488 40659 ft 516 kts 187°
2026-02-17 05:24 54.24523 3.64031 40651 ft 511 kts 192°
2026-02-17 05:24 54.17442 3.62649 40649 ft 512 kts 193°
2026-02-17 05:25 54.10359 3.61247 40650 ft 512 kts 192°
2026-02-17 05:25 54.03285 3.59872 40655 ft 512 kts 193°
2026-02-17 05:26 53.96202 3.58485 40649 ft 512 kts 193°
2026-02-17 05:26 53.89110 3.57111 40647 ft 513 kts 193°
2026-02-17 05:27 53.78490 3.55054 40647 ft 514 kts 193°
2026-02-17 05:27 53.71371 3.53684 40649 ft 514 kts 193°
2026-02-17 05:28 53.64244 3.52315 40648 ft 514 kts 193°
2026-02-17 05:28 53.57028 3.52362 40684 ft 528 kts 177°
2026-02-17 05:29 53.49739 3.54009 40670 ft 529 kts 178°
2026-02-17 05:29 53.42438 3.55658 40669 ft 530 kts 178°
2026-02-17 05:30 53.35145 3.57686 40673 ft 532 kts 175°
2026-02-17 05:31 53.24199 3.60830 40670 ft 532 kts 175°
2026-02-17 05:31 53.16900 3.62956 40673 ft 532 kts 175°
2026-02-17 05:32 53.09597 3.65058 40679 ft 533 kts 175°
2026-02-17 05:32 53.02335 3.67220 40696 ft 536 kts 170°
2026-02-17 05:32 52.98732 3.69217 40718 ft 544 kts 158°
2026-02-17 05:33 52.95442 3.72181 40722 ft 550 kts 147°
2026-02-17 05:33 52.89556 3.80356 40715 ft 553 kts 140°
2026-02-17 05:34 52.83828 3.88859 40710 ft 553 kts 139°
2026-02-17 05:34 52.78089 3.97304 40715 ft 552 kts 140°
2026-02-17 05:35 52.69477 4.09948 40712 ft 552 kts 140°
2026-02-17 05:35 52.63740 4.18380 40711 ft 553 kts 135°
2026-02-17 05:36 52.61253 4.23225 40727 ft 552 kts 122°
2026-02-17 05:36 52.59327 4.28675 40724 ft 550 kts 115°
2026-02-17 05:36 52.55873 4.39915 40701 ft 550 kts 115°
2026-02-17 05:37 52.52419 4.51123 40698 ft 550 kts 115°
2026-02-17 05:37 52.48943 4.62310 40699 ft 550 kts 115°
2026-02-17 05:38 52.45467 4.73485 40698 ft 551 kts 115°
2026-02-17 05:39 52.40239 4.90162 40697 ft 551 kts 115°
2026-02-17 05:39 52.36724 5.01310 40699 ft 551 kts 116°
2026-02-17 05:40 52.33202 5.12435 40690 ft 551 kts 116°
2026-02-17 05:40 52.29669 5.23543 40677 ft 551 kts 116°
2026-02-17 05:41 52.26120 5.34651 40678 ft 551 kts 116°
2026-02-17 05:41 52.22572 5.45705 40678 ft 549 kts 116°
2026-02-17 05:42 52.19012 5.56745 40687 ft 549 kts 116°
2026-02-17 05:42 52.15446 5.67758 40697 ft 549 kts 116°
2026-02-17 05:43 52.10103 5.84165 40702 ft 549 kts 116°
2026-02-17 05:43 52.06511 5.95133 40703 ft 549 kts 116°
2026-02-17 05:44 52.02914 6.06068 40693 ft 548 kts 117°
2026-02-17 05:44 51.99309 6.16979 40682 ft 548 kts 117°
2026-02-17 05:45 51.95070 6.27173 40714 ft 547 kts 136°
2026-02-17 05:45 51.89377 6.35369 40678 ft 547 kts 140°
2026-02-17 05:46 51.83640 6.43349 40685 ft 547 kts 140°
2026-02-17 05:47 51.74993 6.55393 40699 ft 547 kts 141°
2026-02-17 05:47 51.66333 6.67379 40695 ft 547 kts 141°
2026-02-17 05:48 51.60552 6.75339 40698 ft 546 kts 141°
2026-02-17 05:48 51.54803 6.83236 40703 ft 547 kts 141°
2026-02-17 05:49 51.49011 6.91159 40708 ft 547 kts 141°
2026-02-17 05:49 51.43220 6.99056 40708 ft 546 kts 141°
2026-02-17 05:50 51.37427 7.06928 40712 ft 545 kts 141°
2026-02-17 05:51 51.29722 7.17357 40705 ft 545 kts 141°
2026-02-17 05:51 51.23904 7.25200 40700 ft 546 kts 141°
2026-02-17 05:52 51.18093 7.33006 40703 ft 546 kts 141°
2026-02-17 05:52 51.12271 7.40801 40703 ft 546 kts 141°
2026-02-17 05:53 51.06487 7.48519 40708 ft 546 kts 141°
2026-02-17 05:53 51.00656 7.56273 40710 ft 546 kts 141°
2026-02-17 05:54 50.94818 7.64010 40709 ft 546 kts 141°
2026-02-17 05:54 50.88980 7.71721 40686 ft 546 kts 141°
2026-02-17 05:55 50.80208 7.83259 40656 ft 547 kts 141°
2026-02-17 05:55 50.74348 7.90934 40638 ft 547 kts 142°
2026-02-17 05:56 50.68480 7.98593 40631 ft 548 kts 142°
2026-02-17 05:56 50.62644 8.06186 40630 ft 547 kts 142°
2026-02-17 05:57 50.56476 8.13131 40657 ft 546 kts 149°
2026-02-17 05:57 50.50058 8.19547 40685 ft 547 kts 149°
2026-02-17 05:58 50.43640 8.26007 40710 ft 547 kts 149°
2026-02-17 05:59 50.34015 8.35606 40733 ft 545 kts 149°
2026-02-17 05:59 50.27443 8.41408 40764 ft 539 kts 164°
2026-02-17 06:00 50.20359 8.45326 40749 ft 541 kts 164°
2026-02-17 06:00 50.13295 8.49196 40759 ft 541 kts 164°
2026-02-17 06:01 50.06199 8.53093 40755 ft 540 kts 164°
2026-02-17 06:01 49.99098 8.56961 40750 ft 540 kts 164°
2026-02-17 06:02 49.92011 8.60825 40744 ft 540 kts 164°
2026-02-17 06:02 49.84895 8.64682 40739 ft 541 kts 164°
2026-02-17 06:03 49.74284 8.70405 40737 ft 539 kts 167°
2026-02-17 06:03 49.70647 8.71659 40784 ft 532 kts 179°
2026-02-17 06:03 49.66976 8.71900 40782 ft 525 kts 190°
2026-02-17 06:04 49.59757 8.70595 40771 ft 521 kts 193°
2026-02-17 06:04 49.52558 8.69116 40783 ft 522 kts 193°
2026-02-17 06:05 49.45384 8.67694 40781 ft 523 kts 193°
2026-02-17 06:05 49.38158 8.66217 40778 ft 523 kts 193°
2026-02-17 06:06 49.30935 8.64765 40766 ft 522 kts 193°
2026-02-17 06:07 49.20116 8.62583 40767 ft 523 kts 193°
2026-02-17 06:07 49.12929 8.61147 40767 ft 524 kts 194°
2026-02-17 06:08 49.05691 8.59698 40772 ft 524 kts 194°
2026-02-17 06:08 48.98466 8.58166 40784 ft 520 kts 199°
2026-02-17 06:09 48.91391 8.55854 40789 ft 520 kts 198°
2026-02-17 06:09 48.84292 8.53568 40794 ft 521 kts 199°
2026-02-17 06:10 48.77200 8.51275 40800 ft 521 kts 199°
2026-02-17 06:10 48.70090 8.48992 40805 ft 522 kts 199°
2026-02-17 06:11 48.59477 8.45591 40804 ft 522 kts 199°
2026-02-17 06:11 48.52371 8.43322 40810 ft 522 kts 199°
2026-02-17 06:12 48.45248 8.41055 40819 ft 523 kts 199°
2026-02-17 06:12 48.38130 8.38796 40823 ft 523 kts 199°
2026-02-17 06:13 48.31002 8.36540 40834 ft 524 kts 199°
2026-02-17 06:13 48.23875 8.34291 40827 ft 523 kts 199°
2026-02-17 06:14 48.16629 8.32685 40855 ft 536 kts 185°
2026-02-17 06:15 48.05435 8.34922 40848 ft 546 kts 175°
2026-02-17 06:15 47.97930 8.36751 40856 ft 547 kts 176°
2026-02-17 06:16 47.90412 8.38550 40854 ft 547 kts 175°
2026-02-17 06:16 47.82884 8.40367 40854 ft 549 kts 176°
2026-02-17 06:17 47.71552 8.43076 40856 ft 550 kts 176°
2026-02-17 06:17 47.63996 8.44416 40860 ft 547 kts 180°
2026-02-17 06:18 47.56406 8.45557 40858 ft 547 kts 180°
2026-02-17 06:19 47.45034 8.47217 40855 ft 548 kts 180°
2026-02-17 06:19 47.37431 8.48338 40845 ft 550 kts 180°
2026-02-17 06:20 47.29806 8.49447 40847 ft 551 kts 180°
2026-02-17 06:20 47.22216 8.50557 40866 ft 551 kts 180°
2026-02-17 06:21 47.14534 8.51673 40868 ft 551 kts 180°
2026-02-17 06:21 47.06932 8.52778 40866 ft 552 kts 180°
2026-02-17 06:22 46.99280 8.53885 40897 ft 551 kts 179°
2026-02-17 06:22 46.91648 8.54983 40849 ft 550 kts 180°
2026-02-17 06:23 46.80170 8.56632 40857 ft 553 kts 179°
2026-02-17 06:23 46.72572 8.57723 40845 ft 544 kts 179°
2026-02-17 06:24 46.65079 8.58786 40834 ft 545 kts 179°
2026-02-17 06:24 46.57525 8.59865 40819 ft 544 kts 179°
2026-02-17 06:25 46.49995 8.60904 40818 ft 540 kts 183°
2026-02-17 06:25 46.46284 8.60731 40833 ft 530 kts 194°
2026-02-17 06:25 46.42701 8.59663 40831 ft 522 kts 205°
2026-02-17 06:26 46.36281 8.55240 40846 ft 505 kts 219°
2026-02-17 06:27 46.26554 8.48798 40832 ft 530 kts 196°
2026-02-17 06:27 46.22865 8.48160 40820 ft 538 kts 185°
2026-02-17 06:27 46.19108 8.48405 40833 ft 542 kts 179°
2026-02-17 06:28 46.11597 8.49607 40817 ft 546 kts 170°
2026-02-17 06:28 46.04402 8.53086 40798 ft 551 kts 162°
2026-02-17 06:29 45.97222 8.56973 40793 ft 551 kts 162°
2026-02-17 06:29 45.90125 8.61127 40813 ft 552 kts 150°
2026-02-17 06:30 45.83932 8.67694 40765 ft 555 kts 141°
2026-02-17 06:30 45.77936 8.74682 40747 ft 551 kts 142°
2026-02-17 06:31 45.71459 8.80235 40198 ft 531 kts 154°
2026-02-17 06:31 45.68239 8.82680 40172 ft 518 kts 153°
2026-02-17 06:31 45.65084 8.85130 39740 ft 515 kts 153°
2026-02-17 06:31 45.61861 8.87323 39289 ft 510 kts 165°
2026-02-17 06:32 45.58483 8.88618 38617 ft 500 kts 175°
2026-02-17 06:32 45.55101 8.89516 37876 ft 500 kts 174°
2026-02-17 06:32 45.51692 8.90420 37209 ft 497 kts 174°
2026-02-17 06:32 45.48304 8.91197 36492 ft 488 kts 185°
2026-02-17 06:33 45.44964 8.91117 35713 ft 473 kts 197°
2026-02-17 06:33 45.41787 8.90215 34932 ft 456 kts 209°
2026-02-17 06:33 45.38896 8.88614 34228 ft 437 kts 220°
2026-02-17 06:33 45.36346 8.86452 33552 ft 417 kts 232°
2026-02-17 06:34 45.34186 8.83881 32835 ft 395 kts 242°
2026-02-17 06:34 45.32418 8.81038 32165 ft 373 kts 250°
2026-02-17 06:34 45.31035 8.78047 31511 ft 352 kts 259°
2026-02-17 06:35 45.29302 8.71972 30280 ft 315 kts 273°
2026-02-17 06:35 45.28883 8.69034 29687 ft 299 kts 279°
2026-02-17 06:35 45.28707 8.66125 28938 ft 285 kts 284°
2026-02-17 06:35 45.28752 8.63404 28013 ft 275 kts 289°
2026-02-17 06:36 45.28994 8.60744 27114 ft 268 kts 293°
2026-02-17 06:36 45.29415 8.58195 26221 ft 262 kts 297°
2026-02-17 06:36 45.29998 8.55776 25384 ft 257 kts 301°
2026-02-17 06:36 45.30734 8.53484 24564 ft 254 kts 306°
2026-02-17 06:37 45.31613 8.51324 23741 ft 252 kts 309°
2026-02-17 06:37 45.32272 8.49969 23207 ft 251 kts 312°
2026-02-17 06:37 45.33372 8.48052 22272 ft 249 kts 316°
2026-02-17 06:37 45.34582 8.46307 21392 ft 247 kts 321°
2026-02-17 06:38 45.35897 8.44740 20532 ft 246 kts 325°
2026-02-17 06:38 45.37306 8.43358 19687 ft 245 kts 329°
2026-02-17 06:38 45.38808 8.42243 19050 ft 238 kts 343°
2026-02-17 06:39 45.41856 8.43892 17256 ft 279 kts 49°
2026-02-17 06:39 45.42697 8.46421 16393 ft 288 kts 61°
2026-02-17 06:39 45.43295 8.49160 15651 ft 292 kts 66°
2026-02-17 06:39 45.43766 8.51960 15261 ft 290 kts 69°
2026-02-17 06:40 45.44142 8.54786 14799 ft 291 kts 72°
2026-02-17 06:40 45.44424 8.57636 14352 ft 291 kts 75°
2026-02-17 06:40 45.44607 8.60501 14012 ft 292 kts 78°
2026-02-17 06:40 45.44682 8.63401 13559 ft 292 kts 82°
2026-02-17 06:41 45.44639 8.66299 13076 ft 293 kts 85°
2026-02-17 06:41 45.44466 8.69195 12612 ft 294 kts 90°
2026-02-17 06:41 45.44154 8.72035 12143 ft 294 kts 94°
2026-02-17 06:41 45.43680 8.74871 11676 ft 295 kts 99°
2026-02-17 06:42 45.43029 8.77651 11122 ft 296 kts 104°
2026-02-17 06:42 45.42471 8.80432 10627 ft 289 kts 95°
2026-02-17 06:42 45.42070 8.83226 10176 ft 287 kts 95°
2026-02-17 06:43 45.40855 8.88651 9267 ft 291 kts 112°
2026-02-17 06:43 45.39778 8.91091 8826 ft 292 kts 126°
2026-02-17 06:43 45.38343 8.93113 8390 ft 291 kts 142°
2026-02-17 06:43 45.36608 8.94548 7951 ft 287 kts 159°
2026-02-17 06:44 45.34728 8.95264 7798 ft 271 kts 173°
2026-02-17 06:44 45.32862 8.95619 7369 ft 270 kts 175°
2026-02-17 06:44 45.31016 8.95998 7006 ft 267 kts 172°
2026-02-17 06:44 45.29203 8.96504 6657 ft 264 kts 171°
2026-02-17 06:45 45.27484 8.96500 6592 ft 235 kts 205°
2026-02-17 06:45 45.26235 8.95208 6155 ft 220 kts 236°
2026-02-17 06:45 45.25452 8.93397 5696 ft 212 kts 255°
2026-02-17 06:45 45.25192 8.91387 5296 ft 205 kts 274°
2026-02-17 06:46 45.25439 8.89437 5014 ft 199 kts 292°
2026-02-17 06:46 45.26127 8.87780 4624 ft 198 kts 311°
2026-02-17 06:46 45.27188 8.86557 4293 ft 198 kts 330°
2026-02-17 06:47 45.29667 8.84939 3944 ft 188 kts 333°
2026-02-17 06:47 45.30856 8.84136 3927 ft 189 kts 332°
2026-02-17 06:47 45.32039 8.83331 3917 ft 188 kts 332°
2026-02-17 06:47 45.33218 8.82531 3910 ft 187 kts 332°
2026-02-17 06:48 45.34396 8.81732 3912 ft 188 kts 332°
2026-02-17 06:48 45.35577 8.80931 3895 ft 189 kts 332°
2026-02-17 06:48 45.36762 8.80128 3904 ft 189 kts 333°
2026-02-17 06:48 45.38030 8.79617 3894 ft 190 kts 345°
2026-02-17 06:49 45.39317 8.79168 3898 ft 191 kts 343°
2026-02-17 06:49 45.40603 8.78704 3898 ft 191 kts 343°
2026-02-17 06:49 45.41894 8.78244 3907 ft 191 kts 343°
2026-02-17 06:49 45.43122 8.77810 3896 ft 177 kts 343°
2026-02-17 06:50 45.44326 8.77504 3996 ft 177 kts 347°
2026-02-17 06:50 45.45541 8.77135 3920 ft 181 kts 345°
2026-02-17 06:50 45.46776 8.76768 3690 ft 180 kts 346°
2026-02-17 06:51 45.49148 8.76115 3216 ft 162 kts 346°
2026-02-17 06:51 45.50248 8.75813 2997 ft 160 kts 346°
2026-02-17 06:51 45.51337 8.75511 2785 ft 156 kts 346°
2026-02-17 06:51 45.52352 8.75232 2566 ft 144 kts 347°
2026-02-17 06:52 45.53333 8.74961 2389 ft 144 kts 347°
2026-02-17 06:52 45.54310 8.74690 2185 ft 142 kts 347°
2026-02-17 06:52 45.55283 8.74428 1994 ft 142 kts 348°
2026-02-17 06:52 45.56249 8.74162 1796 ft 141 kts 348°
2026-02-17 06:53 45.57196 8.73898 1607 ft 142 kts 348°
2026-02-17 06:53 45.58181 8.73623 1398 ft 142 kts 352°
2026-02-17 06:53 45.59164 8.73358 1222 ft 146 kts 351°
2026-02-17 06:53 45.60159 8.73086 1035 ft 146 kts 350°
2026-02-17 06:54 45.61160 8.72806 812 ft 145 kts 351°
2026-02-17 06:54 45.62098 8.72555 729 ft 120 kts 347°
2026-02-17 06:54 45.62639 8.72402 735 ft 48 kts 349°
2026-02-17 06:55 45.63005 8.72286 741 ft 11 kts 334°
2026-02-17 06:55 45.63079 8.72234 744 ft 14 kts 334°
2026-02-17 06:55 45.63170 8.72148 745 ft 16 kts 321°
2026-02-17 06:55 45.63243 8.72055 747 ft 12 kts 318°
2026-02-17 06:56 45.63303 8.71975 748 ft 10 kts 307°
2026-02-17 06:56 45.63308 8.71879 751 ft 11 kts 261°
2026-02-17 06:56 45.63293 8.71761 750 ft 13 kts 259°
2026-02-17 06:56 45.63274 8.71622 748 ft 15 kts 259°
2026-02-17 06:57 45.63255 8.71494 748 ft 10 kts 256°
2026-02-17 06:57 45.63242 8.71416 748 ft 8 kts 257°
2026-02-17 06:57 45.63227 8.71355 747 ft 5 kts 227°
2026-02-17 06:57 45.63192 8.71342 748 ft 6 kts 179°
2026-02-17 06:58 45.63158 8.71350 748 ft 4 kts 169°
2026-02-17 06:58 45.63146 8.71353 746 ft 1 kts 169°
2026-02-17 06:58 45.63140 8.71355 745 ft 0 kts 169°